Time,TemperatureF,DewpointF,PressureIn,WindDirection,WindDirectionDegrees,WindSpeedMPH,WindSpeedGustMPH,Humidity,HourlyPrecipIn,Conditions,Clouds,dailyrainin,SolarRadiationWatts/m^2,SoftwareType,DateUTC
2013-06-18 00:01:00,82.0,44.7,29.73,North,0,4.0,5.0,27,0.00,,,0.00,0,WeatherHawk,2013-06-18 07:01:00,
2013-06-18 00:02:00,82.2,43.9,29.73,NNE,16,4.0,5.0,26,0.00,,,0.00,0,WeatherHawk,2013-06-18 07:02:00,
2013-06-18 00:07:00,82.2,44.9,29.73,NE,42,4.0,5.0,27,0.00,,,0.00,0,WeatherHawk,2013-06-18 07:07:00,
2013-06-18 00:08:00,82.2,44.9,29.73,NE,42,4.0,5.0,27,0.00,,,0.00,0,WeatherHawk,2013-06-18 07:08:00,
2013-06-18 00:13:00,83.3,45.8,29.73,NE,45,2.0,5.0,27,0.00,,,0.00,0,WeatherHawk,2013-06-18 07:13:00,
2013-06-18 00:18:00,83.1,45.6,29.73,NE,56,3.0,5.0,27,0.00,,,0.00,0,WeatherHawk,2013-06-18 07:18:00,
2013-06-18 00:20:00,81.9,45.5,29.73,NE,53,4.0,4.0,28,0.00,,,0.00,0,WeatherHawk,2013-06-18 07:20:00,
2013-06-18 00:22:00,81.7,45.4,29.73,NE,45,4.0,4.0,28,0.00,,,0.00,0,WeatherHawk,2013-06-18 07:22:00,
2013-06-18 00:23:00,81.7,45.4,29.73,NE,45,4.0,-999.0,28,0.00,,,0.00,0,WeatherHawk,2013-06-18 07:23:00,
2013-06-18 00:26:00,81.9,45.5,29.73,NE,44,4.0,4.0,28,0.00,,,0.00,0,WeatherHawk,2013-06-18 07:26:00,
2013-06-18 00:28:00,81.9,45.5,29.73,NE,44,4.0,4.0,28,0.00,,,0.00,0,WeatherHawk,2013-06-18 07:28:00,
2013-06-18 00:29:00,81.9,46.5,29.73,NE,42,4.0,4.0,29,0.00,,,0.00,0,WeatherHawk,2013-06-18 07:29:00,
2013-06-18 00:31:00,82.2,44.9,29.73,ENE,57,4.0,4.0,27,0.00,,,0.00,0,WeatherHawk,2013-06-18 07:31:00,
2013-06-18 00:32:00,82.0,45.7,29.73,ENE,59,4.0,4.0,28,0.00,,,0.00,1,WeatherHawk,2013-06-18 07:32:00,
2013-06-18 00:33:00,82.0,45.7,29.73,ENE,59,4.0,4.0,28,0.00,,,0.00,1,WeatherHawk,2013-06-18 07:33:00,
2013-06-18 00:36:00,81.3,45.1,29.73,NE,51,4.0,4.0,28,0.00,,,0.00,0,WeatherHawk,2013-06-18 07:36:00,
2013-06-18 00:37:00,81.3,45.1,29.73,NE,50,4.0,4.0,28,0.00,,,0.00,0,WeatherHawk,2013-06-18 07:37:00,
2013-06-18 00:38:00,81.3,45.1,29.73,NE,50,4.0,-999.0,28,0.00,,,0.00,0,WeatherHawk,2013-06-18 07:38:00,
2013-06-18 00:42:00,81.9,45.5,29.73,ENE,71,4.0,4.0,28,0.00,,,0.00,0,WeatherHawk,2013-06-18 07:42:00,
2013-06-18 00:43:00,81.9,45.5,29.73,ENE,71,4.0,4.0,28,0.00,,,0.00,0,WeatherHawk,2013-06-18 07:43:00,
2013-06-18 00:46:00,82.2,44.9,29.73,NE,53,4.0,4.0,27,0.00,,,0.00,0,WeatherHawk,2013-06-18 07:46:00,
2013-06-18 00:48:00,82.2,44.9,29.73,NE,53,4.0,4.0,27,0.00,,,0.00,0,WeatherHawk,2013-06-18 07:48:00,
2013-06-18 00:49:00,81.9,44.6,29.73,NE,44,5.0,5.0,27,0.00,,,0.00,0,WeatherHawk,2013-06-18 07:49:00,
2013-06-18 00:50:00,81.9,44.6,29.73,NE,44,5.0,5.0,27,0.00,,,0.00,0,WeatherHawk,2013-06-18 07:50:00,
2013-06-18 00:53:00,82.4,44.0,29.73,ENE,58,4.0,-999.0,26,0.00,,,0.00,0,WeatherHawk,2013-06-18 07:53:00,
2013-06-18 00:54:00,82.0,43.7,29.73,ENE,63,4.0,4.0,26,0.00,,,0.00,0,WeatherHawk,2013-06-18 07:54:00,
2013-06-18 00:57:00,82.0,44.7,29.73,ENE,59,3.0,4.0,27,0.00,,,0.00,0,WeatherHawk,2013-06-18 07:57:00,
2013-06-18 00:58:00,82.0,44.7,29.73,ENE,59,3.0,-999.0,27,0.00,,,0.00,0,WeatherHawk,2013-06-18 07:58:00,
2013-06-18 00:59:00,82.2,43.9,29.73,ENE,58,3.0,5.0,26,0.00,,,0.00,0,WeatherHawk,2013-06-18 07:59:00,
2013-06-18 01:03:00,82.6,44.2,29.73,NE,44,4.0,5.0,26,0.00,,,0.00,0,WeatherHawk,2013-06-18 08:03:00,
2013-06-18 01:05:00,82.8,44.3,29.73,NE,41,4.0,5.0,26,0.00,,,0.00,0,WeatherHawk,2013-06-18 08:05:00,
2013-06-18 01:08:00,82.8,43.3,29.73,ENE,65,3.0,-999.0,25,0.00,,,0.00,0,WeatherHawk,2013-06-18 08:08:00,
2013-06-18 01:10:00,82.6,43.2,29.73,NE,44,4.0,4.0,25,0.00,,,0.00,0,WeatherHawk,2013-06-18 08:10:00,
2013-06-18 01:12:00,82.0,43.7,29.73,NE,42,3.0,4.0,26,0.00,,,0.00,0,WeatherHawk,2013-06-18 08:12:00,
2013-06-18 01:13:00,81.9,43.6,29.73,NE,37,4.0,4.0,26,0.00,,,0.00,0,WeatherHawk,2013-06-18 08:13:00,
2013-06-18 01:14:00,81.9,43.6,29.73,NE,52,3.0,4.0,26,0.00,,,0.00,0,WeatherHawk,2013-06-18 08:14:00,
2013-06-18 01:18:00,81.9,43.6,29.73,East,90,3.0,4.0,26,0.00,,,0.00,0,WeatherHawk,2013-06-18 08:18:00,
2013-06-18 01:19:00,81.7,43.4,29.73,East,92,4.0,0.0,26,0.00,,,0.00,1,WeatherHawk,2013-06-18 08:19:00,
2013-06-18 01:23:00,81.1,44.9,29.73,NE,55,4.0,0.0,28,0.00,,,0.00,0,WeatherHawk,2013-06-18 08:23:00,
2013-06-18 01:26:00,80.4,44.3,29.73,ENE,72,4.0,0.0,28,0.00,,,0.00,0,WeatherHawk,2013-06-18 08:26:00,
2013-06-18 01:27:00,80.1,44.9,29.73,East,82,4.0,0.0,29,0.00,,,0.00,0,WeatherHawk,2013-06-18 08:27:00,
2013-06-18 01:28:00,80.1,44.9,29.73,East,82,4.0,-999.0,29,0.00,,,0.00,0,WeatherHawk,2013-06-18 08:28:00,
2013-06-18 01:29:00,79.5,45.3,29.73,East,84,5.0,5.0,30,0.00,,,0.00,0,WeatherHawk,2013-06-18 08:29:00,
2013-06-18 01:33:00,79.2,45.0,29.73,East,86,5.0,5.0,30,0.00,,,0.00,0,WeatherHawk,2013-06-18 08:33:00,
2013-06-18 01:38:00,79.0,44.9,29.73,East,94,4.0,-999.0,30,0.00,,,0.00,0,WeatherHawk,2013-06-18 08:38:00,
2013-06-18 01:39:00,78.8,45.6,29.73,East,99,5.0,0.0,31,0.00,,,0.00,0,WeatherHawk,2013-06-18 08:39:00,
2013-06-18 01:40:00,78.6,44.6,29.73,East,100,5.0,5.0,30,0.00,,,0.00,0,WeatherHawk,2013-06-18 08:40:00,
2013-06-18 01:42:00,78.8,43.8,29.73,ESE,107,4.0,5.0,29,0.00,,,0.00,0,WeatherHawk,2013-06-18 08:42:00,
2013-06-18 01:43:00,78.8,43.8,29.73,ESE,107,4.0,-999.0,29,0.00,,,0.00,0,WeatherHawk,2013-06-18 08:43:00,
2013-06-18 01:44:00,79.2,43.2,29.73,ESE,102,3.0,5.0,28,0.00,,,0.00,0,WeatherHawk,2013-06-18 08:44:00,
2013-06-18 01:46:00,79.7,42.7,29.73,ESE,107,4.0,5.0,27,0.00,,,0.00,0,WeatherHawk,2013-06-18 08:46:00,
2013-06-18 01:47:00,79.9,42.9,29.73,East,100,3.0,5.0,27,0.00,,,0.00,0,WeatherHawk,2013-06-18 08:47:00,
2013-06-18 01:48:00,79.9,42.9,29.73,East,100,3.0,-999.0,27,0.00,,,0.00,0,WeatherHawk,2013-06-18 08:48:00,
2013-06-18 01:50:00,80.2,43.2,29.73,ESE,108,5.0,5.0,27,0.00,,,0.00,1,WeatherHawk,2013-06-18 08:50:00,
2013-06-18 01:51:00,80.4,43.4,29.73,ESE,111,4.0,5.0,27,0.00,,,0.00,0,WeatherHawk,2013-06-18 08:51:00,
2013-06-18 01:53:00,80.4,42.4,29.73,ESE,108,4.0,5.0,26,0.00,,,0.00,0,WeatherHawk,2013-06-18 08:53:00,
2013-06-18 01:56:00,80.6,42.5,29.73,ESE,112,4.0,5.0,26,0.00,,,0.00,0,WeatherHawk,2013-06-18 08:56:00,
2013-06-18 01:57:00,80.4,42.4,29.73,ESE,114,4.0,5.0,26,0.00,,,0.00,0,WeatherHawk,2013-06-18 08:57:00,
2013-06-18 01:58:00,80.4,42.4,29.73,ESE,112,4.0,0.0,26,0.00,,,0.00,0,WeatherHawk,2013-06-18 08:58:00,
2013-06-18 02:02:00,80.2,42.2,29.73,ESE,116,5.0,0.0,26,0.00,,,0.00,0,WeatherHawk,2013-06-18 09:02:00,
2013-06-18 02:03:00,80.2,42.2,29.73,ESE,116,5.0,0.0,26,0.00,,,0.00,0,WeatherHawk,2013-06-18 09:03:00,
2013-06-18 02:05:00,80.4,42.4,29.73,ESE,117,5.0,0.0,26,0.00,,,0.00,0,WeatherHawk,2013-06-18 09:05:00,
2013-06-18 02:07:00,80.6,41.5,29.73,ESE,117,5.0,-999.0,25,0.00,,,0.00,0,WeatherHawk,2013-06-18 09:07:00,
2013-06-18 02:09:00,81.1,40.9,29.73,SE,124,6.0,0.0,24,0.00,,,0.00,0,WeatherHawk,2013-06-18 09:09:00,
2013-06-18 02:10:00,81.5,40.1,29.73,SE,128,6.0,0.0,23,0.00,,,0.00,0,WeatherHawk,2013-06-18 09:10:00,
2013-06-18 02:12:00,82.8,41.2,29.73,SE,124,6.0,0.0,23,0.00,,,0.00,0,WeatherHawk,2013-06-18 09:12:00,
2013-06-18 02:15:00,82.8,41.2,29.73,SE,125,5.0,0.0,23,0.00,,,0.00,1,WeatherHawk,2013-06-18 09:15:00,
2013-06-18 02:17:00,82.4,42.0,29.73,SE,135,5.0,0.0,24,0.00,,,0.00,0,WeatherHawk,2013-06-18 09:17:00,
2013-06-18 02:19:00,81.7,41.4,29.73,SE,130,5.0,7.0,24,0.00,,,0.00,1,WeatherHawk,2013-06-18 09:19:00,
2013-06-18 02:22:00,81.3,42.1,29.73,SE,131,5.0,7.0,25,0.00,,,0.00,0,WeatherHawk,2013-06-18 09:22:00,
2013-06-18 02:23:00,81.1,40.9,29.73,SE,127,5.0,7.0,24,0.00,,,0.00,0,WeatherHawk,2013-06-18 09:23:00,
2013-06-18 02:25:00,81.3,41.1,29.73,SE,131,5.0,7.0,24,0.00,,,0.00,0,WeatherHawk,2013-06-18 09:25:00,
2013-06-18 02:30:00,81.0,41.8,29.73,SE,124,4.0,0.0,25,0.00,,,0.00,0,WeatherHawk,2013-06-18 09:30:00,
2013-06-18 02:31:00,81.0,41.8,29.73,ESE,123,4.0,0.0,25,0.00,,,0.00,1,WeatherHawk,2013-06-18 09:31:00,
2013-06-18 02:32:00,81.0,41.8,29.73,ESE,123,4.0,0.0,25,0.00,,,0.00,0,WeatherHawk,2013-06-18 09:32:00,
2013-06-18 02:33:00,81.0,41.8,29.73,SE,125,4.0,0.0,25,0.00,,,0.00,0,WeatherHawk,2013-06-18 09:33:00,
2013-06-18 02:36:00,81.0,41.8,29.73,ESE,120,5.0,0.0,25,0.00,,,0.00,0,WeatherHawk,2013-06-18 09:36:00,
2013-06-18 02:39:00,80.6,41.5,29.73,ESE,120,5.0,0.0,25,0.00,,,0.00,1,WeatherHawk,2013-06-18 09:39:00,
2013-06-18 02:42:00,80.4,41.4,29.73,ESE,116,4.0,0.0,25,0.00,,,0.00,1,WeatherHawk,2013-06-18 09:42:00,
2013-06-18 02:43:00,80.4,41.4,29.73,ESE,121,5.0,0.0,25,0.00,,,0.00,0,WeatherHawk,2013-06-18 09:43:00,
2013-06-18 02:44:00,80.2,41.2,29.73,SE,136,5.0,0.0,25,0.00,,,0.00,0,WeatherHawk,2013-06-18 09:44:00,
2013-06-18 02:47:00,79.9,41.9,29.73,SE,132,4.0,0.0,26,0.00,,,0.00,0,WeatherHawk,2013-06-18 09:47:00,
2013-06-18 02:48:00,79.7,41.8,29.73,SE,135,6.0,0.0,26,0.00,,,0.00,0,WeatherHawk,2013-06-18 09:48:00,
2013-06-18 02:50:00,79.7,42.7,29.73,SE,135,5.0,6.0,27,0.00,,,0.00,0,WeatherHawk,2013-06-18 09:50:00,
2013-06-18 02:52:00,79.3,42.4,29.73,SE,138,5.0,-999.0,27,0.00,,,0.00,0,WeatherHawk,2013-06-18 09:52:00,
2013-06-18 02:56:00,79.0,42.1,29.73,SSE,147,3.0,6.0,27,0.00,,,0.00,0,WeatherHawk,2013-06-18 09:56:00,
2013-06-18 02:57:00,78.8,42.0,29.73,SSE,152,4.0,6.0,27,0.00,,,0.00,0,WeatherHawk,2013-06-18 09:57:00,
2013-06-18 03:02:00,79.0,42.1,29.73,SE,130,6.0,0.0,27,0.00,,,0.00,0,WeatherHawk,2013-06-18 10:02:00,
2013-06-18 03:07:00,79.0,43.1,29.73,SE,137,7.0,0.0,28,0.00,,,0.00,0,WeatherHawk,2013-06-18 10:07:00,
2013-06-18 03:09:00,79.0,43.1,29.73,SE,133,6.0,0.0,28,0.00,,,0.00,0,WeatherHawk,2013-06-18 10:09:00,
2013-06-18 03:12:00,78.8,42.9,29.73,SE,134,7.0,0.0,28,0.00,,,0.00,0,WeatherHawk,2013-06-18 10:12:00,
2013-06-18 03:15:00,78.6,43.7,29.73,SE,129,6.0,0.0,29,0.00,,,0.00,0,WeatherHawk,2013-06-18 10:15:00,
2013-06-18 03:16:00,78.6,43.7,29.73,SE,132,6.0,0.0,29,0.00,,,0.00,1,WeatherHawk,2013-06-18 10:16:00,
2013-06-18 03:18:00,78.6,44.6,29.73,SE,139,7.0,0.0,30,0.00,,,0.00,0,WeatherHawk,2013-06-18 10:18:00,
2013-06-18 03:19:00,78.6,44.6,29.73,SE,142,9.0,0.0,30,0.00,,,0.00,0,WeatherHawk,2013-06-18 10:19:00,
2013-06-18 03:22:00,78.6,44.6,29.73,SE,137,8.0,-999.0,30,0.00,,,0.00,0,WeatherHawk,2013-06-18 10:22:00,
2013-06-18 03:27:00,78.1,45.0,29.73,SE,138,10.0,0.0,31,0.00,,,0.00,0,WeatherHawk,2013-06-18 10:27:00,
2013-06-18 03:29:00,77.9,44.8,29.73,SE,137,9.0,0.0,31,0.00,,,0.00,0,WeatherHawk,2013-06-18 10:29:00,
2013-06-18 03:32:00,77.7,44.7,29.73,SE,143,8.0,-999.0,31,0.00,,,0.00,1,WeatherHawk,2013-06-18 10:32:00,
2013-06-18 03:33:00,77.7,44.7,29.72,SE,139,7.0,0.0,31,0.00,,,0.00,0,WeatherHawk,2013-06-18 10:33:00,
2013-06-18 03:35:00,77.5,44.5,29.72,SE,133,8.0,0.0,31,0.00,,,0.00,0,WeatherHawk,2013-06-18 10:35:00,
2013-06-18 03:37:00,77.5,44.5,29.72,SE,131,8.0,0.0,31,0.00,,,0.00,0,WeatherHawk,2013-06-18 10:37:00,
2013-06-18 03:40:00,77.4,44.3,29.72,SE,136,9.0,0.0,31,0.00,,,0.00,0,WeatherHawk,2013-06-18 10:40:00,
2013-06-18 03:41:00,77.2,44.2,29.72,SE,136,8.0,0.0,31,0.00,,,0.00,0,WeatherHawk,2013-06-18 10:41:00,
2013-06-18 03:42:00,77.2,44.2,29.72,SE,139,9.0,10.0,31,0.00,,,0.00,0,WeatherHawk,2013-06-18 10:42:00,
2013-06-18 03:44:00,77.2,44.2,29.72,SE,145,7.0,10.0,31,0.00,,,0.00,0,WeatherHawk,2013-06-18 10:44:00,
2013-06-18 03:45:00,77.0,44.9,29.72,SE,143,8.0,10.0,32,0.00,,,0.00,1,WeatherHawk,2013-06-18 10:45:00,
2013-06-18 03:47:00,76.8,44.7,29.72,SE,141,8.0,10.0,32,0.00,,,0.00,1,WeatherHawk,2013-06-18 10:47:00,
2013-06-18 03:52:00,76.5,45.2,29.72,SSE,147,8.0,0.0,33,0.00,,,0.00,0,WeatherHawk,2013-06-18 10:52:00,
2013-06-18 03:54:00,76.3,45.0,29.72,SE,139,7.0,0.0,33,0.00,,,0.00,1,WeatherHawk,2013-06-18 10:54:00,
2013-06-18 03:55:00,76.1,44.9,29.72,SE,137,9.0,0.0,33,0.00,,,0.00,0,WeatherHawk,2013-06-18 10:55:00,
2013-06-18 03:57:00,76.1,44.9,29.72,SE,133,9.0,-999.0,33,0.00,,,0.00,0,WeatherHawk,2013-06-18 10:57:00,
2013-06-18 03:58:00,75.9,45.5,29.72,SE,136,9.0,0.0,34,0.00,,,0.00,0,WeatherHawk,2013-06-18 10:58:00,
2013-06-18 04:01:00,75.9,45.5,29.72,SE,134,9.0,0.0,34,0.00,,,0.00,1,WeatherHawk,2013-06-18 11:01:00,
2013-06-18 04:02:00,75.9,45.5,29.72,SE,134,9.0,0.0,34,0.00,,,0.00,1,WeatherHawk,2013-06-18 11:02:00,
2013-06-18 04:05:00,75.7,45.4,29.72,SE,139,9.0,0.0,34,0.00,,,0.00,0,WeatherHawk,2013-06-18 11:05:00,
2013-06-18 04:07:00,75.7,46.1,29.72,SE,138,9.0,0.0,35,0.00,,,0.00,0,WeatherHawk,2013-06-18 11:07:00,
2013-06-18 04:09:00,75.6,46.0,29.72,SE,134,9.0,0.0,35,0.00,,,0.00,0,WeatherHawk,2013-06-18 11:09:00,
2013-06-18 04:10:00,75.6,46.0,29.72,SE,135,10.0,0.0,35,0.00,,,0.00,0,WeatherHawk,2013-06-18 11:10:00,
2013-06-18 04:12:00,75.6,46.0,29.73,SE,128,10.0,0.0,35,0.00,,,0.00,0,WeatherHawk,2013-06-18 11:12:00,
2013-06-18 04:13:00,75.6,46.0,29.73,SE,133,8.0,0.0,35,0.00,,,0.00,0,WeatherHawk,2013-06-18 11:13:00,
2013-06-18 04:17:00,75.6,46.0,29.73,SE,137,9.0,0.0,35,0.00,,,0.00,0,WeatherHawk,2013-06-18 11:17:00,
2013-06-18 04:19:00,75.6,46.0,29.73,SE,139,9.0,0.0,35,0.00,,,0.00,0,WeatherHawk,2013-06-18 11:19:00,
2013-06-18 04:22:00,75.7,45.4,29.73,SE,141,9.0,0.0,34,0.00,,,0.00,0,WeatherHawk,2013-06-18 11:22:00,
2013-06-18 04:25:00,75.7,44.6,29.73,SE,131,11.0,0.0,33,0.00,,,0.00,1,WeatherHawk,2013-06-18 11:25:00,
2013-06-18 04:27:00,75.7,44.6,29.73,SE,133,9.0,0.0,33,0.00,,,0.00,0,WeatherHawk,2013-06-18 11:27:00,
2013-06-18 04:31:00,75.7,44.6,29.73,SE,131,9.0,0.0,33,0.00,,,0.00,0,WeatherHawk,2013-06-18 11:31:00,
2013-06-18 04:32:00,75.7,44.6,29.73,SE,139,9.0,0.0,33,0.00,,,0.00,0,WeatherHawk,2013-06-18 11:32:00,
2013-06-18 04:33:00,75.7,43.8,29.73,SE,136,10.0,0.0,32,0.00,,,0.00,1,WeatherHawk,2013-06-18 11:33:00,
2013-06-18 04:34:00,75.7,43.8,29.73,SE,135,8.0,0.0,32,0.00,,,0.00,1,WeatherHawk,2013-06-18 11:34:00,
2013-06-18 04:37:00,75.6,43.6,29.73,SE,137,9.0,0.0,32,0.00,,,0.00,0,WeatherHawk,2013-06-18 11:37:00,
2013-06-18 04:38:00,75.6,43.6,29.73,SE,132,9.0,0.0,32,0.00,,,0.00,0,WeatherHawk,2013-06-18 11:38:00,
2013-06-18 04:40:00,75.6,43.6,29.73,SE,133,11.0,0.0,32,0.00,,,0.00,0,WeatherHawk,2013-06-18 11:40:00,
2013-06-18 04:42:00,75.6,43.6,29.73,SE,138,9.0,0.0,32,0.00,,,0.00,0,WeatherHawk,2013-06-18 11:42:00,
2013-06-18 04:43:00,75.6,42.8,29.73,SE,140,7.0,0.0,31,0.00,,,0.00,0,WeatherHawk,2013-06-18 11:43:00,
2013-06-18 04:46:00,75.6,42.8,29.73,SE,137,9.0,0.0,31,0.00,,,0.00,0,WeatherHawk,2013-06-18 11:46:00,
2013-06-18 04:47:00,75.6,42.8,29.73,SE,134,7.0,-999.0,31,0.00,,,0.00,0,WeatherHawk,2013-06-18 11:47:00,
2013-06-18 04:51:00,75.7,42.9,29.73,SE,135,8.0,0.0,31,0.00,,,0.00,0,WeatherHawk,2013-06-18 11:51:00,
2013-06-18 04:52:00,75.6,42.8,29.73,SE,130,11.0,0.0,31,0.00,,,0.00,0,WeatherHawk,2013-06-18 11:52:00,
2013-06-18 04:55:00,75.7,42.1,29.73,SE,132,9.0,0.0,30,0.00,,,0.00,0,WeatherHawk,2013-06-18 11:55:00,
2013-06-18 04:56:00,75.7,42.1,29.73,SE,134,9.0,0.0,30,0.00,,,0.00,0,WeatherHawk,2013-06-18 11:56:00,
2013-06-18 04:58:00,75.7,41.2,29.73,SE,133,9.0,0.0,29,0.00,,,0.00,0,WeatherHawk,2013-06-18 11:58:00,
2013-06-18 05:00:00,75.7,41.2,29.73,SE,127,9.0,0.0,29,0.00,,,0.00,0,WeatherHawk,2013-06-18 12:00:00,
2013-06-18 05:01:00,75.7,41.2,29.73,SE,126,10.0,0.0,29,0.00,,,0.00,0,WeatherHawk,2013-06-18 12:01:00,
2013-06-18 05:02:00,75.7,41.2,29.73,SE,126,10.0,-999.0,29,0.00,,,0.00,0,WeatherHawk,2013-06-18 12:02:00,
2013-06-18 05:04:00,75.6,41.1,29.73,SE,130,9.0,0.0,29,0.00,,,0.00,0,WeatherHawk,2013-06-18 12:04:00,
2013-06-18 05:05:00,75.7,41.2,29.73,SE,132,10.0,0.0,29,0.00,,,0.00,0,WeatherHawk,2013-06-18 12:05:00,
2013-06-18 05:07:00,75.7,41.2,29.73,SE,127,9.0,0.0,29,0.00,,,0.00,0,WeatherHawk,2013-06-18 12:07:00,
2013-06-18 05:10:00,75.7,40.3,29.73,SE,126,11.0,0.0,28,0.00,,,0.00,1,WeatherHawk,2013-06-18 12:10:00,
2013-06-18 05:12:00,75.7,40.3,29.74,SE,128,8.0,-999.0,28,0.00,,,0.00,0,WeatherHawk,2013-06-18 12:12:00,
2013-06-18 05:13:00,75.7,40.3,29.74,SE,134,9.0,0.0,28,0.00,,,0.00,0,WeatherHawk,2013-06-18 12:13:00,
2013-06-18 05:16:00,75.4,40.9,29.74,SE,128,6.0,0.0,29,0.00,,,0.00,0,WeatherHawk,2013-06-18 12:16:00,
2013-06-18 05:17:00,75.4,40.9,29.74,SE,138,5.0,-999.0,29,0.00,,,0.00,0,WeatherHawk,2013-06-18 12:17:00,
2013-06-18 05:18:00,75.2,40.7,29.74,SE,138,6.0,0.0,29,0.00,,,0.00,1,WeatherHawk,2013-06-18 12:18:00,
2013-06-18 05:19:00,75.2,39.8,29.74,SE,141,10.0,0.0,28,0.00,,,0.00,1,WeatherHawk,2013-06-18 12:19:00,
2013-06-18 05:22:00,75.2,39.8,29.74,SE,139,9.0,-999.0,28,0.00,,,0.00,2,WeatherHawk,2013-06-18 12:22:00,
2013-06-18 05:25:00,75.0,40.6,29.74,SE,135,7.0,0.0,29,0.00,,,0.00,3,WeatherHawk,2013-06-18 12:25:00,
2013-06-18 05:26:00,75.0,40.6,29.74,SE,133,7.0,0.0,29,0.00,,,0.00,3,WeatherHawk,2013-06-18 12:26:00,
2013-06-18 05:27:00,75.0,40.6,29.74,SE,133,7.0,0.0,29,0.00,,,0.00,3,WeatherHawk,2013-06-18 12:27:00,
2013-06-18 05:30:00,75.0,40.6,29.74,SE,136,6.0,0.0,29,0.00,,,0.00,0,WeatherHawk,2013-06-18 12:30:00,
2013-06-18 05:31:00,75.0,39.7,29.74,SE,138,8.0,10.0,28,0.00,,,0.00,7,WeatherHawk,2013-06-18 12:31:00,
2013-06-18 05:32:00,75.0,39.7,29.74,SE,138,8.0,10.0,28,0.00,,,0.00,7,WeatherHawk,2013-06-18 12:32:00,
2013-06-18 05:35:00,75.0,40.6,29.74,SE,132,7.0,10.0,29,0.00,,,0.00,8,WeatherHawk,2013-06-18 12:35:00,
2013-06-18 05:37:00,74.8,40.4,29.74,SE,130,7.0,10.0,29,0.00,,,0.00,9,WeatherHawk,2013-06-18 12:37:00,
2013-06-18 05:38:00,74.8,39.5,29.74,SE,137,7.0,0.0,28,0.00,,,0.00,14,WeatherHawk,2013-06-18 12:38:00,
2013-06-18 05:40:00,74.8,39.5,29.75,SE,143,8.0,0.0,28,0.00,,,0.00,18,WeatherHawk,2013-06-18 12:40:00,
2013-06-18 05:42:00,74.8,39.5,29.75,SSE,149,7.0,0.0,28,0.00,,,0.00,19,WeatherHawk,2013-06-18 12:42:00,
2013-06-18 05:44:00,74.5,40.1,29.75,SE,135,6.0,0.0,29,0.00,,,0.00,26,WeatherHawk,2013-06-18 12:44:00,
2013-06-18 05:45:00,74.5,40.1,29.75,SE,132,6.0,0.0,29,0.00,,,0.00,26,WeatherHawk,2013-06-18 12:45:00,
2013-06-18 05:46:00,74.3,40.0,29.75,SE,129,6.0,0.0,29,0.00,,,0.00,28,WeatherHawk,2013-06-18 12:46:00,
2013-06-18 05:47:00,74.3,40.0,29.75,SE,129,6.0,-999.0,29,0.00,,,0.00,28,WeatherHawk,2013-06-18 12:47:00,
2013-06-18 05:50:00,74.3,40.0,29.75,SE,137,6.0,0.0,29,0.00,,,0.00,39,WeatherHawk,2013-06-18 12:50:00,
2013-06-18 05:52:00,74.3,40.0,29.75,SE,133,6.0,0.0,29,0.00,,,0.00,45,WeatherHawk,2013-06-18 12:52:00,
2013-06-18 05:55:00,73.9,39.7,29.75,SE,143,7.0,0.0,29,0.00,,,0.00,55,WeatherHawk,2013-06-18 12:55:00,
2013-06-18 05:56:00,73.9,39.7,29.75,SE,141,7.0,0.0,29,0.00,,,0.00,57,WeatherHawk,2013-06-18 12:56:00,
2013-06-18 05:57:00,73.9,39.7,29.75,SE,141,7.0,-999.0,29,0.00,,,0.00,57,WeatherHawk,2013-06-18 12:57:00,
2013-06-18 06:01:00,74.1,38.9,29.76,SE,136,6.0,0.0,28,0.00,,,0.00,72,WeatherHawk,2013-06-18 13:01:00,
2013-06-18 06:02:00,74.1,38.9,29.76,SE,136,6.0,0.0,28,0.00,,,0.00,72,WeatherHawk,2013-06-18 13:02:00,
2013-06-18 06:03:00,74.3,39.1,29.76,SE,142,7.0,0.0,28,0.00,,,0.00,78,WeatherHawk,2013-06-18 13:03:00,
2013-06-18 06:06:00,74.7,39.4,29.76,SE,139,7.0,0.0,28,0.00,,,0.00,85,WeatherHawk,2013-06-18 13:06:00,
2013-06-18 06:07:00,74.8,38.6,29.76,SE,142,7.0,-999.0,27,0.00,,,0.00,87,WeatherHawk,2013-06-18 13:07:00,
2013-06-18 06:09:00,75.2,38.9,29.76,SE,141,7.0,0.0,27,0.00,,,0.00,94,WeatherHawk,2013-06-18 13:09:00,
2013-06-18 06:10:00,75.4,39.1,29.76,SE,144,7.0,0.0,27,0.00,,,0.00,98,WeatherHawk,2013-06-18 13:10:00,
2013-06-18 06:12:00,75.4,39.1,29.76,SE,144,8.0,0.0,27,0.00,,,0.00,102,WeatherHawk,2013-06-18 13:12:00,
2013-06-18 06:13:00,75.7,39.4,29.76,SE,143,7.0,0.0,27,0.00,,,0.00,108,WeatherHawk,2013-06-18 13:13:00,
2013-06-18 06:16:00,75.9,38.6,29.76,SE,144,8.0,0.0,26,0.00,,,0.00,115,WeatherHawk,2013-06-18 13:16:00,
2013-06-18 06:17:00,75.9,38.6,29.76,SE,144,8.0,0.0,26,0.00,,,0.00,115,WeatherHawk,2013-06-18 13:17:00,
2013-06-18 06:19:00,76.1,38.7,29.76,SE,130,6.0,8.0,26,0.00,,,0.00,127,WeatherHawk,2013-06-18 13:19:00,
2013-06-18 06:22:00,76.3,39.8,29.76,SE,135,7.0,8.0,27,0.00,,,0.00,134,WeatherHawk,2013-06-18 13:22:00,
2013-06-18 06:24:00,76.3,39.8,29.76,SE,138,6.0,8.0,27,0.00,,,0.00,140,WeatherHawk,2013-06-18 13:24:00,
2013-06-18 06:27:00,76.6,40.1,29.76,SE,142,6.0,8.0,27,0.00,,,0.00,149,WeatherHawk,2013-06-18 13:27:00,
2013-06-18 06:28:00,76.6,40.1,29.76,SE,139,6.0,0.0,27,0.00,,,0.00,156,WeatherHawk,2013-06-18 13:28:00,
2013-06-18 06:32:00,77.0,40.4,29.76,SE,130,7.0,8.0,27,0.00,,,0.00,170,WeatherHawk,2013-06-18 13:32:00,
2013-06-18 06:34:00,77.2,40.6,29.76,SE,139,7.0,8.0,27,0.00,,,0.00,178,WeatherHawk,2013-06-18 13:34:00,
2013-06-18 06:37:00,77.4,40.7,29.76,SE,143,7.0,8.0,27,0.00,,,0.00,187,WeatherHawk,2013-06-18 13:37:00,
2013-06-18 06:38:00,77.4,40.7,29.76,SE,143,7.0,0.0,27,0.00,,,0.00,192,WeatherHawk,2013-06-18 13:38:00,
2013-06-18 06:40:00,77.5,40.9,29.76,SE,143,7.0,0.0,27,0.00,,,0.00,196,WeatherHawk,2013-06-18 13:40:00,
2013-06-18 06:42:00,77.7,41.1,29.76,SE,137,7.0,0.0,27,0.00,,,0.00,201,WeatherHawk,2013-06-18 13:42:00,
2013-06-18 06:43:00,77.9,41.2,29.76,SE,131,6.0,0.0,27,0.00,,,0.00,207,WeatherHawk,2013-06-18 13:43:00,
2013-06-18 06:45:00,78.1,41.4,29.76,SE,133,5.0,0.0,27,0.00,,,0.00,212,WeatherHawk,2013-06-18 13:45:00,
2013-06-18 06:47:00,78.3,41.5,29.76,SE,131,6.0,0.0,27,0.00,,,0.00,220,WeatherHawk,2013-06-18 13:47:00,
2013-06-18 06:48:00,78.3,41.5,29.76,SE,130,7.0,0.0,27,0.00,,,0.00,224,WeatherHawk,2013-06-18 13:48:00,
2013-06-18 06:51:00,78.4,41.7,29.76,SE,145,6.0,0.0,27,0.00,,,0.00,234,WeatherHawk,2013-06-18 13:51:00,
2013-06-18 06:52:00,78.4,41.7,29.76,SE,140,7.0,0.0,27,0.00,,,0.00,235,WeatherHawk,2013-06-18 13:52:00,
2013-06-18 06:55:00,78.8,42.0,29.76,SE,140,7.0,0.0,27,0.00,,,0.00,249,WeatherHawk,2013-06-18 13:55:00,
2013-06-18 06:56:00,79.0,42.1,29.76,SE,146,6.0,0.0,27,0.00,,,0.00,253,WeatherHawk,2013-06-18 13:56:00,
2013-06-18 06:57:00,79.0,42.1,29.76,SE,133,6.0,0.0,27,0.00,,,0.00,253,WeatherHawk,2013-06-18 13:57:00,
2013-06-18 06:58:00,79.2,41.3,29.76,SE,143,6.0,0.0,26,0.00,,,0.00,262,WeatherHawk,2013-06-18 13:58:00,
2013-06-18 07:01:00,79.7,41.8,29.76,SSE,148,7.0,0.0,26,0.00,,,0.00,273,WeatherHawk,2013-06-18 14:01:00,
2013-06-18 07:02:00,79.7,41.8,29.76,SSE,148,7.0,0.0,26,0.00,,,0.00,273,WeatherHawk,2013-06-18 14:02:00,
2013-06-18 07:04:00,80.1,41.0,29.76,SSE,156,6.0,0.0,25,0.00,,,0.00,286,WeatherHawk,2013-06-18 14:04:00,
2013-06-18 07:05:00,80.1,41.0,29.76,SE,145,6.0,0.0,25,0.00,,,0.00,288,WeatherHawk,2013-06-18 14:05:00,
2013-06-18 07:07:00,80.2,41.2,29.76,SE,141,5.0,-999.0,25,0.00,,,0.00,292,WeatherHawk,2013-06-18 14:07:00,
2013-06-18 07:10:00,80.8,39.5,29.76,SE,143,7.0,0.0,23,0.00,,,0.00,307,WeatherHawk,2013-06-18 14:10:00,
2013-06-18 07:12:00,81.0,39.7,29.76,SE,143,7.0,-999.0,23,0.00,,,0.00,312,WeatherHawk,2013-06-18 14:12:00,
2013-06-18 07:13:00,81.1,39.8,29.76,SE,144,8.0,0.0,23,0.00,,,0.00,316,WeatherHawk,2013-06-18 14:13:00,
2013-06-18 07:14:00,81.3,40.0,29.76,SSE,149,7.0,0.0,23,0.00,,,0.00,321,WeatherHawk,2013-06-18 14:14:00,
2013-06-18 07:17:00,81.5,40.1,29.76,SE,145,7.0,-999.0,23,0.00,,,0.00,329,WeatherHawk,2013-06-18 14:17:00,
2013-06-18 07:18:00,81.5,39.0,29.76,SSE,147,6.0,0.0,22,0.00,,,0.00,335,WeatherHawk,2013-06-18 14:18:00,
2013-06-18 07:19:00,81.7,39.1,29.76,SE,144,6.0,0.0,22,0.00,,,0.00,339,WeatherHawk,2013-06-18 14:19:00,
2013-06-18 07:22:00,82.0,39.4,29.76,SSE,151,8.0,0.0,22,0.00,,,0.00,353,WeatherHawk,2013-06-18 14:22:00,
2013-06-18 07:23:00,82.4,39.7,29.76,SE,141,6.0,0.0,22,0.00,,,0.00,357,WeatherHawk,2013-06-18 14:23:00,
2013-06-18 07:24:00,82.6,38.7,29.76,SSE,149,7.0,0.0,21,0.00,,,0.00,361,WeatherHawk,2013-06-18 14:24:00,
2013-06-18 07:28:00,82.9,39.0,29.76,SSE,149,6.0,0.0,21,0.00,,,0.00,375,WeatherHawk,2013-06-18 14:28:00,
2013-06-18 07:29:00,83.1,39.1,29.76,SSE,151,6.0,9.0,21,0.00,,,0.00,379,WeatherHawk,2013-06-18 14:29:00,
2013-06-18 07:31:00,83.3,39.3,29.76,SE,146,6.0,9.0,21,0.00,,,0.00,386,WeatherHawk,2013-06-18 14:31:00,
2013-06-18 07:32:00,83.3,39.3,29.76,SE,146,6.0,9.0,21,0.00,,,0.00,386,WeatherHawk,2013-06-18 14:32:00,
2013-06-18 07:33:00,83.5,38.2,29.76,SSE,150,6.0,9.0,20,0.00,,,0.00,393,WeatherHawk,2013-06-18 14:33:00,
2013-06-18 07:35:00,83.8,38.5,29.77,SSE,151,6.0,9.0,20,0.00,,,0.00,402,WeatherHawk,2013-06-18 14:35:00,
2013-06-18 07:37:00,83.8,38.5,29.77,SSE,148,6.0,9.0,20,0.00,,,0.00,405,WeatherHawk,2013-06-18 14:37:00,
2013-06-18 07:41:00,84.4,37.6,29.77,SSE,153,7.0,7.0,19,0.00,,,0.00,423,WeatherHawk,2013-06-18 14:41:00,
2013-06-18 07:42:00,84.4,37.6,29.77,SSE,153,7.0,-999.0,19,0.00,,,0.00,423,WeatherHawk,2013-06-18 14:42:00,
2013-06-18 07:43:00,84.6,37.7,29.77,SSE,159,7.0,7.0,19,0.00,,,0.00,431,WeatherHawk,2013-06-18 14:43:00,
2013-06-18 07:47:00,84.7,37.9,29.77,SSE,164,7.0,7.0,19,0.00,,,0.00,447,WeatherHawk,2013-06-18 14:47:00,
2013-06-18 07:48:00,84.7,37.9,29.77,SSE,166,6.0,0.0,19,0.00,,,0.00,451,WeatherHawk,2013-06-18 14:48:00,
2013-06-18 07:49:00,84.7,37.9,29.77,SSE,163,7.0,0.0,19,0.00,,,0.00,454,WeatherHawk,2013-06-18 14:49:00,
2013-06-18 07:52:00,84.9,36.7,29.77,SSE,162,6.0,0.0,18,0.00,,,0.00,465,WeatherHawk,2013-06-18 14:52:00,
2013-06-18 07:53:00,84.9,36.7,29.77,SSE,158,8.0,0.0,18,0.00,,,0.00,469,WeatherHawk,2013-06-18 14:53:00,
2013-06-18 07:55:00,85.3,35.5,29.77,SSE,165,7.0,0.0,17,0.00,,,0.00,478,WeatherHawk,2013-06-18 14:55:00,
2013-06-18 07:58:00,85.5,35.7,29.77,SSE,163,9.0,0.0,17,0.00,,,0.00,485,WeatherHawk,2013-06-18 14:58:00,
2013-06-18 08:00:00,85.5,34.1,29.77,SSE,168,10.0,10.0,16,0.00,,,0.00,492,WeatherHawk,2013-06-18 15:00:00,
2013-06-18 08:01:00,85.5,35.7,29.77,South,169,9.0,10.0,17,0.00,,,0.00,500,WeatherHawk,2013-06-18 15:01:00,
2013-06-18 08:03:00,85.5,34.1,29.77,SSE,166,9.0,10.0,16,0.00,,,0.00,507,WeatherHawk,2013-06-18 15:03:00,
2013-06-18 08:04:00,85.5,34.1,29.77,SSE,165,10.0,10.0,16,0.00,,,0.00,511,WeatherHawk,2013-06-18 15:04:00,
2013-06-18 08:05:00,85.5,35.7,29.77,SSE,153,8.0,10.0,17,0.00,,,0.00,514,WeatherHawk,2013-06-18 15:05:00,
2013-06-18 08:07:00,85.6,34.3,29.77,SSE,151,8.0,10.0,16,0.00,,,0.00,521,WeatherHawk,2013-06-18 15:07:00,
2013-06-18 08:08:00,85.6,34.3,29.77,SSE,151,8.0,-999.0,16,0.00,,,0.00,521,WeatherHawk,2013-06-18 15:08:00,
2013-06-18 08:12:00,86.2,34.7,29.77,SSE,158,7.0,10.0,16,0.00,,,0.00,540,WeatherHawk,2013-06-18 15:12:00,
2013-06-18 08:13:00,86.2,33.1,29.77,SSE,156,9.0,10.0,15,0.00,,,0.00,545,WeatherHawk,2013-06-18 15:13:00,
2013-06-18 08:16:00,86.5,33.4,29.77,SSE,161,9.0,10.0,15,0.00,,,0.00,556,WeatherHawk,2013-06-18 15:16:00,
2013-06-18 08:18:00,86.7,33.5,29.77,SSE,161,8.0,10.0,15,0.00,,,0.00,564,WeatherHawk,2013-06-18 15:18:00,
2013-06-18 08:19:00,86.7,33.5,29.77,SSE,150,10.0,10.0,15,0.00,,,0.00,567,WeatherHawk,2013-06-18 15:19:00,
2013-06-18 08:23:00,87.1,32.1,29.77,SSE,149,9.0,10.0,14,0.00,,,0.00,579,WeatherHawk,2013-06-18 15:23:00,
2013-06-18 08:24:00,87.3,32.2,29.77,SE,145,9.0,10.0,14,0.00,,,0.00,589,WeatherHawk,2013-06-18 15:24:00,
2013-06-18 08:27:00,87.4,30.5,29.78,SE,141,9.0,10.0,13,0.00,,,0.00,599,WeatherHawk,2013-06-18 15:27:00,
2013-06-18 08:28:00,87.4,30.5,29.78,SE,141,9.0,-999.0,13,0.00,,,0.00,599,WeatherHawk,2013-06-18 15:28:00,
2013-06-18 08:32:00,87.8,30.8,29.78,SSE,154,9.0,10.0,13,0.00,,,0.00,619,WeatherHawk,2013-06-18 15:32:00,
2013-06-18 08:33:00,87.8,30.8,29.78,SE,139,10.0,10.0,13,0.00,,,0.00,619,WeatherHawk,2013-06-18 15:33:00,
2013-06-18 08:35:00,88.0,31.0,29.78,SE,142,9.0,10.0,13,0.00,,,0.00,628,WeatherHawk,2013-06-18 15:35:00,
2013-06-18 08:37:00,88.0,31.0,29.78,SE,142,10.0,10.0,13,0.00,,,0.00,635,WeatherHawk,2013-06-18 15:37:00,
2013-06-18 08:38:00,88.2,31.1,29.78,SSE,149,9.0,10.0,13,0.00,,,0.00,636,WeatherHawk,2013-06-18 15:38:00,
2013-06-18 08:39:00,88.0,31.0,29.78,SSE,158,8.0,11.0,13,0.00,,,0.00,641,WeatherHawk,2013-06-18 15:39:00,
2013-06-18 08:42:00,88.2,31.1,29.78,SE,132,6.0,11.0,13,0.00,,,0.00,653,WeatherHawk,2013-06-18 15:42:00,
2013-06-18 08:43:00,88.2,31.1,29.78,SE,132,6.0,11.0,13,0.00,,,0.00,653,WeatherHawk,2013-06-18 15:43:00,
2013-06-18 08:44:00,88.3,31.2,29.78,South,170,8.0,11.0,13,0.00,,,0.00,657,WeatherHawk,2013-06-18 15:44:00,
2013-06-18 08:48:00,88.5,29.4,29.78,South,182,9.0,11.0,12,0.00,,,0.00,667,WeatherHawk,2013-06-18 15:48:00,
2013-06-18 08:49:00,88.5,31.4,29.78,SSE,159,9.0,10.0,13,0.00,,,0.00,677,WeatherHawk,2013-06-18 15:49:00,
2013-06-18 08:50:00,88.5,31.4,29.78,South,172,8.0,10.0,13,0.00,,,0.00,682,WeatherHawk,2013-06-18 15:50:00,
2013-06-18 08:53:00,88.7,31.5,29.78,SSE,162,9.0,10.0,13,0.00,,,0.00,690,WeatherHawk,2013-06-18 15:53:00,
2013-06-18 08:55:00,89.1,31.8,29.78,SSE,158,8.0,10.0,13,0.00,,,0.00,700,WeatherHawk,2013-06-18 15:55:00,
2013-06-18 08:58:00,88.9,31.7,29.78,SSE,168,8.0,-999.0,13,0.00,,,0.00,704,WeatherHawk,2013-06-18 15:58:00,
2013-06-18 09:01:00,89.4,32.1,29.78,SE,143,6.0,10.0,13,0.00,,,0.00,721,WeatherHawk,2013-06-18 16:01:00,
2013-06-18 09:02:00,89.8,34.2,29.78,SE,146,6.0,10.0,14,0.00,,,0.00,723,WeatherHawk,2013-06-18 16:02:00,
2013-06-18 09:03:00,89.8,34.2,29.78,SE,146,6.0,10.0,14,0.00,,,0.00,723,WeatherHawk,2013-06-18 16:03:00,
2013-06-18 09:05:00,90.1,32.6,29.78,SSE,159,6.0,10.0,13,0.00,,,0.00,733,WeatherHawk,2013-06-18 16:05:00,
2013-06-18 09:07:00,90.1,32.6,29.78,SE,146,6.0,10.0,13,0.00,,,0.00,740,WeatherHawk,2013-06-18 16:07:00,
2013-06-18 09:08:00,90.1,32.6,29.78,SE,146,6.0,-999.0,13,0.00,,,0.00,740,WeatherHawk,2013-06-18 16:08:00,
2013-06-18 09:11:00,90.5,30.9,29.78,SSE,149,7.0,8.0,12,0.00,,,0.00,754,WeatherHawk,2013-06-18 16:11:00,
2013-06-18 09:13:00,90.7,28.9,29.78,SSE,154,6.0,8.0,11,0.00,,,0.00,754,WeatherHawk,2013-06-18 16:13:00,
2013-06-18 09:14:00,90.7,28.9,29.78,SSE,163,7.0,8.0,11,0.00,,,0.00,763,WeatherHawk,2013-06-18 16:14:00,
2013-06-18 09:16:00,90.7,33.1,29.78,South,180,5.0,8.0,13,0.00,,,0.00,766,WeatherHawk,2013-06-18 16:16:00,
2013-06-18 09:17:00,90.9,31.2,29.78,SSE,165,7.0,8.0,12,0.00,,,0.00,775,WeatherHawk,2013-06-18 16:17:00,
2013-06-18 09:20:00,91.4,27.2,29.78,South,187,7.0,0.0,10,0.00,,,0.00,782,WeatherHawk,2013-06-18 16:20:00,
2013-06-18 09:21:00,91.4,27.2,29.78,SSE,168,6.0,0.0,10,0.00,,,0.00,785,WeatherHawk,2013-06-18 16:21:00,
2013-06-18 09:23:00,91.4,24.6,29.78,South,183,7.0,-999.0,9,0.00,,,0.00,792,WeatherHawk,2013-06-18 16:23:00,
2013-06-18 09:26:00,91.4,29.5,29.78,SE,136,5.0,0.0,11,0.00,,,0.00,802,WeatherHawk,2013-06-18 16:26:00,
2013-06-18 09:27:00,91.6,29.6,29.78,SSE,156,7.0,0.0,11,0.00,,,0.00,806,WeatherHawk,2013-06-18 16:27:00,
2013-06-18 09:28:00,91.6,29.6,29.78,SSE,156,7.0,-999.0,11,0.00,,,0.00,806,WeatherHawk,2013-06-18 16:28:00,
2013-06-18 09:30:00,91.8,29.8,29.78,SE,143,5.0,8.0,11,0.00,,,0.00,813,WeatherHawk,2013-06-18 16:30:00,
2013-06-18 09:31:00,91.9,29.9,29.78,South,183,5.0,8.0,11,0.00,,,0.00,818,WeatherHawk,2013-06-18 16:31:00,
2013-06-18 09:33:00,91.9,29.9,29.78,SSE,161,4.0,8.0,11,0.00,,,0.00,821,WeatherHawk,2013-06-18 16:33:00,
2013-06-18 09:36:00,91.9,29.9,29.78,South,177,5.0,8.0,11,0.00,,,0.00,834,WeatherHawk,2013-06-18 16:36:00,
2013-06-18 09:38:00,92.3,30.2,29.78,SSE,156,6.0,8.0,11,0.00,,,0.00,840,WeatherHawk,2013-06-18 16:38:00,
2013-06-18 09:40:00,92.3,27.8,29.78,SSE,159,6.0,7.0,10,0.00,,,0.00,846,WeatherHawk,2013-06-18 16:40:00,
2013-06-18 09:42:00,92.5,28.0,29.78,SE,124,5.0,7.0,10,0.00,,,0.00,853,WeatherHawk,2013-06-18 16:42:00,
2013-06-18 09:43:00,92.5,28.0,29.78,SE,136,5.0,7.0,10,0.00,,,0.00,854,WeatherHawk,2013-06-18 16:43:00,
2013-06-18 09:44:00,92.8,28.3,29.78,SE,136,5.0,7.0,10,0.00,,,0.00,858,WeatherHawk,2013-06-18 16:44:00,
2013-06-18 09:45:00,92.8,28.3,29.77,SSE,155,2.0,7.0,10,0.00,,,0.00,861,WeatherHawk,2013-06-18 16:45:00,
2013-06-18 09:48:00,92.5,30.3,29.78,SSE,164,7.0,-999.0,11,0.00,,,0.00,869,WeatherHawk,2013-06-18 16:48:00,
2013-06-18 09:49:00,92.3,30.2,29.78,SSE,167,6.0,10.0,11,0.00,,,0.00,871,WeatherHawk,2013-06-18 16:49:00,
2013-06-18 09:50:00,92.1,30.0,29.78,South,189,4.0,10.0,11,0.00,,,0.00,875,WeatherHawk,2013-06-18 16:50:00,
2013-06-18 09:53:00,92.7,30.4,29.78,ESE,118,2.0,10.0,11,0.00,,,0.00,883,WeatherHawk,2013-06-18 16:53:00,
2013-06-18 09:56:00,92.8,30.6,29.78,South,174,5.0,10.0,11,0.00,,,0.00,891,WeatherHawk,2013-06-18 16:56:00,
2013-06-18 09:57:00,92.8,30.6,29.78,SSE,153,6.0,10.0,11,0.00,,,0.00,897,WeatherHawk,2013-06-18 16:57:00,
2013-06-18 09:58:00,92.8,30.6,29.78,SSE,153,8.0,0.0,11,0.00,,,0.00,896,WeatherHawk,2013-06-18 16:58:00,
2013-06-18 10:00:00,92.8,30.6,29.78,SSE,164,5.0,7.0,11,0.00,,,0.00,902,WeatherHawk,2013-06-18 17:00:00,
2013-06-18 10:03:00,92.8,30.6,29.78,SE,146,3.0,7.0,11,0.00,,,0.00,907,WeatherHawk,2013-06-18 17:03:00,
2013-06-18 10:04:00,92.8,28.3,29.78,SW,222,5.0,7.0,10,0.00,,,0.00,914,WeatherHawk,2013-06-18 17:04:00,
2013-06-18 10:06:00,93.0,30.7,29.78,SSW,205,3.0,7.0,11,0.00,,,0.00,918,WeatherHawk,2013-06-18 17:06:00,
2013-06-18 10:07:00,93.0,30.7,29.78,South,173,4.0,7.0,11,0.00,,,0.00,919,WeatherHawk,2013-06-18 17:07:00,
2013-06-18 10:08:00,93.2,30.9,29.78,SSE,160,7.0,0.0,11,0.00,,,0.00,924,WeatherHawk,2013-06-18 17:08:00,
2013-06-18 10:09:00,93.0,30.7,29.78,SSE,161,5.0,8.0,11,0.00,,,0.00,925,WeatherHawk,2013-06-18 17:09:00,
2013-06-18 10:12:00,93.0,30.7,29.78,SSE,157,7.0,8.0,11,0.00,,,0.00,934,WeatherHawk,2013-06-18 17:12:00,
2013-06-18 10:13:00,93.0,30.7,29.78,SSE,153,4.0,8.0,11,0.00,,,0.00,933,WeatherHawk,2013-06-18 17:13:00,
2013-06-18 10:17:00,93.2,30.9,29.78,East,100,2.0,8.0,11,0.00,,,0.00,944,WeatherHawk,2013-06-18 17:17:00,
2013-06-18 10:19:00,93.9,29.1,29.78,SSW,207,4.0,0.0,10,0.00,,,0.00,948,WeatherHawk,2013-06-18 17:19:00,
2013-06-18 10:22:00,94.1,31.5,29.78,SSW,209,7.0,7.0,11,0.00,,,0.00,956,WeatherHawk,2013-06-18 17:22:00,
2013-06-18 10:23:00,94.1,29.2,29.78,South,185,7.0,7.0,10,0.00,,,0.00,957,WeatherHawk,2013-06-18 17:23:00,
2013-06-18 10:27:00,94.1,29.2,29.78,WSW,253,3.0,7.0,10,0.00,,,0.00,970,WeatherHawk,2013-06-18 17:27:00,
2013-06-18 10:32:00,94.5,29.5,29.78,WSW,244,2.0,9.0,10,0.00,,,0.00,984,WeatherHawk,2013-06-18 17:32:00,
2013-06-18 10:34:00,95.2,27.4,29.78,SE,124,6.0,9.0,9,0.00,,,0.00,992,WeatherHawk,2013-06-18 17:34:00,
2013-06-18 10:36:00,94.5,26.9,29.78,ENE,57,2.0,9.0,9,0.00,,,0.00,1005,WeatherHawk,2013-06-18 17:36:00,
2013-06-18 10:37:00,94.5,26.9,29.78,ENE,57,2.0,9.0,9,0.00,,,0.00,1005,WeatherHawk,2013-06-18 17:37:00,
2013-06-18 10:40:00,94.8,27.2,29.78,SE,128,5.0,7.0,9,0.00,,,0.00,1018,WeatherHawk,2013-06-18 17:40:00,
2013-06-18 10:42:00,94.8,27.2,29.78,ESE,102,5.0,7.0,9,0.00,,,0.00,1014,WeatherHawk,2013-06-18 17:42:00,
2013-06-18 10:46:00,94.6,27.0,29.78,SSE,152,3.0,7.0,9,0.00,,,0.00,974,WeatherHawk,2013-06-18 17:46:00,
2013-06-18 10:47:00,94.6,27.0,29.78,SSE,152,3.0,7.0,9,0.00,,,0.00,974,WeatherHawk,2013-06-18 17:47:00,
2013-06-18 10:50:00,94.6,27.0,29.78,ESE,123,1.0,0.0,9,0.00,,,0.00,983,WeatherHawk,2013-06-18 17:50:00,
2013-06-18 10:52:00,94.8,27.2,29.78,ESE,123,5.0,0.0,9,0.00,,,0.00,986,WeatherHawk,2013-06-18 17:52:00,
2013-06-18 10:53:00,95.0,27.3,29.78,East,86,2.0,0.0,9,0.00,,,0.00,980,WeatherHawk,2013-06-18 17:53:00,
2013-06-18 10:56:00,95.4,27.6,29.78,SE,145,6.0,0.0,9,0.00,,,0.00,975,WeatherHawk,2013-06-18 17:56:00,
2013-06-18 10:57:00,95.4,27.6,29.78,SE,131,3.0,0.0,9,0.00,,,0.00,993,WeatherHawk,2013-06-18 17:57:00,
2013-06-18 10:59:00,95.2,27.4,29.78,NE,37,4.0,0.0,9,0.00,,,0.00,987,WeatherHawk,2013-06-18 17:59:00,
2013-06-18 11:02:00,95.0,27.3,29.78,ENE,73,2.0,-999.0,9,0.00,,,0.00,1009,WeatherHawk,2013-06-18 18:02:00,
2013-06-18 11:04:00,95.7,27.8,29.77,NNW,346,2.0,0.0,9,0.00,,,0.00,1037,WeatherHawk,2013-06-18 18:04:00,
2013-06-18 11:07:00,95.9,28.0,29.78,SW,218,4.0,0.0,9,0.00,,,0.00,1034,WeatherHawk,2013-06-18 18:07:00,
2013-06-18 11:08:00,96.3,28.2,29.77,SW,216,6.0,0.0,9,0.00,,,0.00,1035,WeatherHawk,2013-06-18 18:08:00,
2013-06-18 11:11:00,95.7,27.8,29.77,SW,223,6.0,7.0,9,0.00,,,0.00,1060,WeatherHawk,2013-06-18 18:11:00,
2013-06-18 11:12:00,95.7,27.8,29.77,SW,214,3.0,7.0,9,0.00,,,0.00,1057,WeatherHawk,2013-06-18 18:12:00,
2013-06-18 11:17:00,96.8,25.8,29.77,SW,227,3.0,7.0,8,0.00,,,0.00,1077,WeatherHawk,2013-06-18 18:17:00,
2013-06-18 11:18:00,97.0,25.9,29.77,South,184,8.0,0.0,8,0.00,,,0.00,1078,WeatherHawk,2013-06-18 18:18:00,
2013-06-18 11:21:00,96.8,25.8,29.77,South,182,3.0,0.0,8,0.00,,,0.00,1079,WeatherHawk,2013-06-18 18:21:00,
2013-06-18 11:22:00,96.8,25.8,29.77,East,100,2.0,0.0,8,0.00,,,0.00,1083,WeatherHawk,2013-06-18 18:22:00,
2013-06-18 11:24:00,96.8,28.6,29.77,South,174,1.0,0.0,9,0.00,,,0.00,1077,WeatherHawk,2013-06-18 18:24:00,
2013-06-18 11:27:00,97.3,26.2,29.77,West,262,3.0,0.0,8,0.00,,,0.00,1068,WeatherHawk,2013-06-18 18:27:00,
2013-06-18 11:32:00,97.5,29.2,29.77,NNW,327,3.0,6.0,9,0.00,,,0.00,1075,WeatherHawk,2013-06-18 18:32:00,
2013-06-18 11:33:00,97.3,29.0,29.77,NNE,27,3.0,6.0,9,0.00,,,0.00,1085,WeatherHawk,2013-06-18 18:33:00,
2013-06-18 11:34:00,97.2,28.9,29.77,NNE,30,2.0,6.0,9,0.00,,,0.00,1078,WeatherHawk,2013-06-18 18:34:00,
2013-06-18 11:35:00,96.8,28.6,29.77,SE,137,1.0,6.0,9,0.00,,,0.00,1079,WeatherHawk,2013-06-18 18:35:00,
2013-06-18 11:38:00,97.9,26.6,29.76,WSW,238,4.0,0.0,8,0.00,,,0.00,1097,WeatherHawk,2013-06-18 18:38:00,
2013-06-18 11:40:00,98.4,27.0,29.76,SW,218,3.0,5.0,8,0.00,,,0.00,1091,WeatherHawk,2013-06-18 18:40:00,
2013-06-18 11:41:00,98.4,27.0,29.76,SW,215,4.0,5.0,8,0.00,,,0.00,1100,WeatherHawk,2013-06-18 18:41:00,
2013-06-18 11:42:00,98.4,27.0,29.76,South,185,4.0,5.0,8,0.00,,,0.00,1106,WeatherHawk,2013-06-18 18:42:00,
2013-06-18 11:44:00,98.1,23.5,29.76,South,169,6.0,6.0,7,0.00,,,0.00,1103,WeatherHawk,2013-06-18 18:44:00,
2013-06-18 11:46:00,97.9,23.4,29.76,South,169,2.0,5.0,7,0.00,,,0.00,1115,WeatherHawk,2013-06-18 18:46:00,
2013-06-18 11:47:00,98.1,23.5,29.76,SSE,163,4.0,5.0,7,0.00,,,0.00,1116,WeatherHawk,2013-06-18 18:47:00,
2013-06-18 11:52:00,98.6,23.9,29.76,ESE,122,4.0,0.0,7,0.00,,,0.00,1098,WeatherHawk,2013-06-18 18:52:00,
2013-06-18 11:55:00,98.6,23.9,29.76,SE,132,6.0,0.0,7,0.00,,,0.00,1088,WeatherHawk,2013-06-18 18:55:00,
2013-06-18 11:57:00,98.1,23.5,29.76,SSE,155,3.0,0.0,7,0.00,,,0.00,1103,WeatherHawk,2013-06-18 18:57:00,
2013-06-18 11:58:00,97.9,23.4,29.76,South,177,4.0,0.0,7,0.00,,,0.00,1106,WeatherHawk,2013-06-18 18:58:00,
2013-06-18 12:00:00,97.7,23.3,29.76,SSW,207,1.0,0.0,7,0.00,,,0.00,1095,WeatherHawk,2013-06-18 19:00:00,
2013-06-18 12:02:00,98.1,23.5,29.76,SW,230,2.0,0.0,7,0.00,,,0.00,1102,WeatherHawk,2013-06-18 19:02:00,
2013-06-18 12:03:00,98.6,23.9,29.76,WSW,252,3.0,0.0,7,0.00,,,0.00,1113,WeatherHawk,2013-06-18 19:03:00,
2013-06-18 12:06:00,99.1,24.3,29.76,ENE,76,3.0,0.0,7,0.00,,,0.00,1116,WeatherHawk,2013-06-18 19:06:00,
2013-06-18 12:07:00,99.1,24.3,29.76,ENE,76,3.0,0.0,7,0.00,,,0.00,1116,WeatherHawk,2013-06-18 19:07:00,
2013-06-18 12:08:00,99.1,27.5,29.75,East,94,4.0,6.0,8,0.00,,,0.00,1110,WeatherHawk,2013-06-18 19:08:00,
2013-06-18 12:10:00,99.3,24.4,29.75,ENE,64,5.0,6.0,7,0.00,,,0.00,1108,WeatherHawk,2013-06-18 19:10:00,
2013-06-18 12:12:00,99.5,27.8,29.75,WSW,240,7.0,7.0,8,0.00,,,0.00,1104,WeatherHawk,2013-06-18 19:12:00,
2013-06-18 12:13:00,99.3,24.4,29.75,WSW,251,4.0,6.0,7,0.00,,,0.00,1109,WeatherHawk,2013-06-18 19:13:00,
2013-06-18 12:17:00,99.1,24.3,29.75,SSE,159,4.0,6.0,7,0.00,,,0.00,1128,WeatherHawk,2013-06-18 19:17:00,
2013-06-18 12:18:00,98.8,24.0,29.75,South,175,6.0,0.0,7,0.00,,,0.00,1127,WeatherHawk,2013-06-18 19:18:00,
2013-06-18 12:22:00,99.3,24.4,29.75,WSW,240,4.0,-999.0,7,0.00,,,0.00,1131,WeatherHawk,2013-06-18 19:22:00,
2013-06-18 12:25:00,99.9,24.8,29.75,NNE,23,3.0,0.0,7,0.00,,,0.00,1136,WeatherHawk,2013-06-18 19:25:00,
2013-06-18 12:27:00,99.9,24.8,29.75,NNE,23,3.0,0.0,7,0.00,,,0.00,1136,WeatherHawk,2013-06-18 19:27:00,
2013-06-18 12:28:00,99.7,24.7,29.75,SSE,155,7.0,0.0,7,0.00,,,0.00,1137,WeatherHawk,2013-06-18 19:28:00,
2013-06-18 12:31:00,99.0,24.2,29.75,South,172,2.0,9.0,7,0.00,,,0.00,1131,WeatherHawk,2013-06-18 19:31:00,
2013-06-18 12:32:00,99.1,27.5,29.75,East,97,6.0,-999.0,8,0.00,,,0.00,1133,WeatherHawk,2013-06-18 19:32:00,
2013-06-18 12:34:00,99.9,28.0,29.75,SE,144,6.0,9.0,8,0.00,,,0.00,1134,WeatherHawk,2013-06-18 19:34:00,
2013-06-18 12:36:00,100.0,24.9,29.74,South,182,7.0,9.0,7,0.00,,,0.00,1137,WeatherHawk,2013-06-18 19:36:00,
2013-06-18 12:41:00,99.5,27.8,29.74,East,86,4.0,0.0,8,0.00,,,0.00,1136,WeatherHawk,2013-06-18 19:41:00,
2013-06-18 12:42:00,99.3,24.4,29.74,South,171,2.0,0.0,7,0.00,,,0.00,1135,WeatherHawk,2013-06-18 19:42:00,
2013-06-18 12:43:00,99.3,24.4,29.74,West,274,2.0,0.0,7,0.00,,,0.00,1136,WeatherHawk,2013-06-18 19:43:00,
2013-06-18 12:47:00,100.8,25.5,29.74,SW,233,6.0,0.0,7,0.00,,,0.00,1138,WeatherHawk,2013-06-18 19:47:00,
2013-06-18 12:48:00,101.3,25.8,29.74,SW,225,9.0,0.0,7,0.00,,,0.00,1136,WeatherHawk,2013-06-18 19:48:00,
2013-06-18 12:49:00,100.8,25.5,29.74,SSE,163,6.0,0.0,7,0.00,,,0.00,1136,WeatherHawk,2013-06-18 19:49:00,
2013-06-18 12:52:00,100.2,25.1,29.74,SW,224,4.0,0.0,7,0.00,,,0.00,1131,WeatherHawk,2013-06-18 19:52:00,
2013-06-18 12:56:00,100.8,25.5,29.74,SW,215,4.0,0.0,7,0.00,,,0.00,1136,WeatherHawk,2013-06-18 19:56:00,
2013-06-18 12:58:00,100.8,25.5,29.74,ENE,64,3.0,0.0,7,0.00,,,0.00,1132,WeatherHawk,2013-06-18 19:58:00,
2013-06-18 13:00:00,100.6,28.6,29.74,NNW,345,4.0,9.0,8,0.00,,,0.00,1131,WeatherHawk,2013-06-18 20:00:00,
2013-06-18 13:02:00,100.6,28.6,29.74,NNW,329,2.0,9.0,8,0.00,,,0.00,1133,WeatherHawk,2013-06-18 20:02:00,
2013-06-18 13:05:00,101.8,26.2,29.74,SE,141,3.0,9.0,7,0.00,,,0.00,1130,WeatherHawk,2013-06-18 20:05:00,
2013-06-18 13:07:00,102.0,26.4,29.74,South,171,6.0,9.0,7,0.00,,,0.00,1131,WeatherHawk,2013-06-18 20:07:00,
2013-06-18 13:09:00,101.8,26.2,29.74,SSW,193,7.0,0.0,7,0.00,,,0.00,1130,WeatherHawk,2013-06-18 20:09:00,
2013-06-18 13:12:00,101.7,26.1,29.73,WSW,241,3.0,-999.0,7,0.00,,,0.00,1127,WeatherHawk,2013-06-18 20:12:00,
2013-06-18 13:15:00,101.7,26.1,29.73,SSE,148,3.0,0.0,7,0.00,,,0.00,1126,WeatherHawk,2013-06-18 20:15:00,
2013-06-18 13:16:00,101.5,26.0,29.73,SSW,194,11.0,0.0,7,0.00,,,0.00,1125,WeatherHawk,2013-06-18 20:16:00,
2013-06-18 13:17:00,101.7,26.1,29.73,South,189,9.0,0.0,7,0.00,,,0.00,1126,WeatherHawk,2013-06-18 20:17:00,
2013-06-18 13:19:00,102.0,26.4,29.73,SSW,194,9.0,0.0,7,0.00,,,0.00,1124,WeatherHawk,2013-06-18 20:19:00,
2013-06-18 13:21:00,102.2,26.5,29.73,SSW,194,9.0,0.0,7,0.00,,,0.00,1126,WeatherHawk,2013-06-18 20:21:00,
2013-06-18 13:23:00,101.8,26.2,29.73,South,181,9.0,0.0,7,0.00,,,0.00,1120,WeatherHawk,2013-06-18 20:23:00,
2013-06-18 13:26:00,101.3,25.8,29.73,SSW,199,3.0,0.0,7,0.00,,,0.00,1111,WeatherHawk,2013-06-18 20:26:00,
2013-06-18 13:27:00,101.3,25.8,29.73,SSW,199,3.0,0.0,7,0.00,,,0.00,1111,WeatherHawk,2013-06-18 20:27:00,
2013-06-18 13:30:00,100.9,25.6,29.73,South,186,3.0,0.0,7,0.00,,,0.00,1111,WeatherHawk,2013-06-18 20:30:00,
2013-06-18 13:32:00,100.9,25.6,29.73,South,180,4.0,0.0,7,0.00,,,0.00,1111,WeatherHawk,2013-06-18 20:32:00,
2013-06-18 13:33:00,101.5,26.0,29.73,SSE,161,6.0,0.0,7,0.00,,,0.00,1105,WeatherHawk,2013-06-18 20:33:00,
2013-06-18 13:37:00,101.8,26.2,29.73,SSE,156,4.0,0.0,7,0.00,,,0.00,1103,WeatherHawk,2013-06-18 20:37:00,
2013-06-18 13:38:00,102.7,26.9,29.73,SSW,208,1.0,0.0,7,0.00,,,0.00,1102,WeatherHawk,2013-06-18 20:38:00,
2013-06-18 13:42:00,102.4,26.6,29.72,SSE,147,11.0,-999.0,7,0.00,,,0.00,1098,WeatherHawk,2013-06-18 20:42:00,
2013-06-18 13:45:00,101.7,26.1,29.72,ESE,119,4.0,0.0,7,0.00,,,0.00,1092,WeatherHawk,2013-06-18 20:45:00,
2013-06-18 13:46:00,101.8,26.2,29.72,South,177,6.0,0.0,7,0.00,,,0.00,1093,WeatherHawk,2013-06-18 20:46:00,
2013-06-18 13:47:00,101.8,26.2,29.72,South,177,6.0,0.0,7,0.00,,,0.00,1093,WeatherHawk,2013-06-18 20:47:00,
2013-06-18 13:48:00,102.2,26.5,29.72,South,169,8.0,0.0,7,0.00,,,0.00,1087,WeatherHawk,2013-06-18 20:48:00,
2013-06-18 13:51:00,102.4,26.6,29.72,SSW,206,8.0,0.0,7,0.00,,,0.00,1090,WeatherHawk,2013-06-18 20:51:00,
2013-06-18 13:53:00,102.4,26.6,29.72,SSW,192,10.0,0.0,7,0.00,,,0.00,1080,WeatherHawk,2013-06-18 20:53:00,
2013-06-18 13:57:00,102.7,26.9,29.72,SW,217,2.0,0.0,7,0.00,,,0.00,1078,WeatherHawk,2013-06-18 20:57:00,
2013-06-18 13:58:00,103.6,27.5,29.72,SSE,158,9.0,0.0,7,0.00,,,0.00,1076,WeatherHawk,2013-06-18 20:58:00,
2013-06-18 14:01:00,103.1,27.1,29.71,South,169,7.0,0.0,7,0.00,,,0.00,1069,WeatherHawk,2013-06-18 21:01:00,
2013-06-18 14:02:00,103.1,27.1,29.71,South,169,7.0,-999.0,7,0.00,,,0.00,1069,WeatherHawk,2013-06-18 21:02:00,
2013-06-18 14:06:00,103.8,27.7,29.71,SSE,156,10.0,0.0,7,0.00,,,0.00,1064,WeatherHawk,2013-06-18 21:06:00,
2013-06-18 14:07:00,103.6,27.5,29.71,SE,126,8.0,0.0,7,0.00,,,0.00,1062,WeatherHawk,2013-06-18 21:07:00,
2013-06-18 14:10:00,102.4,26.6,29.71,NE,40,1.0,12.0,7,0.00,,,0.00,1057,WeatherHawk,2013-06-18 21:10:00,
2013-06-18 14:12:00,102.7,26.9,29.71,SSE,156,9.0,-999.0,7,0.00,,,0.00,1055,WeatherHawk,2013-06-18 21:12:00,
2013-06-18 14:13:00,102.7,26.9,29.71,SE,146,6.0,12.0,7,0.00,,,0.00,1049,WeatherHawk,2013-06-18 21:13:00,
2013-06-18 14:16:00,102.9,27.0,29.71,South,191,5.0,12.0,7,0.00,,,0.00,1044,WeatherHawk,2013-06-18 21:16:00,
2013-06-18 14:17:00,102.9,27.0,29.71,South,181,8.0,12.0,7,0.00,,,0.00,1047,WeatherHawk,2013-06-18 21:17:00,
2013-06-18 14:19:00,103.1,27.1,29.71,SW,231,8.0,0.0,7,0.00,,,0.00,1044,WeatherHawk,2013-06-18 21:19:00,
2013-06-18 14:20:00,103.1,27.1,29.71,West,259,4.0,13.0,7,0.00,,,0.00,1038,WeatherHawk,2013-06-18 21:20:00,
2013-06-18 14:22:00,103.1,27.1,29.71,SSW,211,3.0,-999.0,7,0.00,,,0.00,1032,WeatherHawk,2013-06-18 21:22:00,
2013-06-18 14:25:00,103.6,27.5,29.71,SSW,200,12.0,13.0,7,0.00,,,0.00,1026,WeatherHawk,2013-06-18 21:25:00,
2013-06-18 14:27:00,103.8,27.7,29.71,SSW,206,11.0,13.0,7,0.00,,,0.00,1025,WeatherHawk,2013-06-18 21:27:00,
2013-06-18 14:28:00,103.3,27.3,29.71,South,190,7.0,0.0,7,0.00,,,0.00,1018,WeatherHawk,2013-06-18 21:28:00,
2013-06-18 14:31:00,104.2,27.9,29.70,SSW,207,7.0,0.0,7,0.00,,,0.00,1017,WeatherHawk,2013-06-18 21:31:00,
2013-06-18 14:32:00,104.2,27.9,29.70,SSW,207,7.0,0.0,7,0.00,,,0.00,1017,WeatherHawk,2013-06-18 21:32:00,
2013-06-18 14:37:00,103.8,27.7,29.70,SSW,194,9.0,0.0,7,0.00,,,0.00,1007,WeatherHawk,2013-06-18 21:37:00,
2013-06-18 14:42:00,103.3,27.3,29.70,WSW,255,3.0,0.0,7,0.00,,,0.00,987,WeatherHawk,2013-06-18 21:42:00,
2013-06-18 14:44:00,103.5,27.4,29.70,South,177,8.0,0.0,7,0.00,,,0.00,984,WeatherHawk,2013-06-18 21:44:00,
2013-06-18 14:46:00,104.4,28.0,29.69,WNW,296,10.0,0.0,7,0.00,,,0.00,982,WeatherHawk,2013-06-18 21:46:00,
2013-06-18 14:47:00,104.4,28.0,29.69,WNW,296,10.0,-999.0,7,0.00,,,0.00,982,WeatherHawk,2013-06-18 21:47:00,
2013-06-18 14:51:00,104.4,28.0,29.70,WSW,237,8.0,11.0,7,0.00,,,0.00,973,WeatherHawk,2013-06-18 21:51:00,
2013-06-18 14:52:00,104.4,28.0,29.70,WSW,237,8.0,11.0,7,0.00,,,0.00,973,WeatherHawk,2013-06-18 21:52:00,
2013-06-18 14:55:00,104.0,31.1,29.70,SW,230,11.0,11.0,8,0.00,,,0.00,961,WeatherHawk,2013-06-18 21:55:00,
2013-06-18 14:56:00,104.2,27.9,29.69,SSW,197,13.0,13.0,7,0.00,,,0.00,959,WeatherHawk,2013-06-18 21:56:00,
2013-06-18 14:57:00,104.2,27.9,29.69,SSW,197,13.0,-999.0,7,0.00,,,0.00,959,WeatherHawk,2013-06-18 21:57:00,
2013-06-18 15:00:00,104.4,28.0,29.69,South,179,7.0,0.0,7,0.00,,,0.00,949,WeatherHawk,2013-06-18 22:00:00,
2013-06-18 15:02:00,104.2,27.9,29.69,South,185,5.0,0.0,7,0.00,,,0.00,947,WeatherHawk,2013-06-18 22:02:00,
2013-06-18 15:03:00,104.2,27.9,29.69,SSW,212,5.0,0.0,7,0.00,,,0.00,941,WeatherHawk,2013-06-18 22:03:00,
2013-06-18 15:07:00,104.9,28.4,29.69,SSW,210,11.0,0.0,7,0.00,,,0.00,930,WeatherHawk,2013-06-18 22:07:00,
2013-06-18 15:08:00,104.9,28.4,29.69,SSW,195,7.0,0.0,7,0.00,,,0.00,926,WeatherHawk,2013-06-18 22:08:00,
2013-06-18 15:12:00,104.0,27.8,29.69,SW,214,6.0,0.0,7,0.00,,,0.00,919,WeatherHawk,2013-06-18 22:12:00,
2013-06-18 15:15:00,104.5,28.2,29.68,SW,224,9.0,0.0,7,0.00,,,0.00,912,WeatherHawk,2013-06-18 22:15:00,
2013-06-18 15:16:00,104.5,28.2,29.68,WSW,245,8.0,0.0,7,0.00,,,0.00,906,WeatherHawk,2013-06-18 22:16:00,
2013-06-18 15:17:00,104.5,28.2,29.68,WSW,245,8.0,0.0,7,0.00,,,0.00,906,WeatherHawk,2013-06-18 22:17:00,
2013-06-18 15:20:00,105.6,28.9,29.68,SSW,210,8.0,0.0,7,0.00,,,0.00,893,WeatherHawk,2013-06-18 22:20:00,
2013-06-18 15:21:00,106.0,29.2,29.68,SW,225,12.0,0.0,7,0.00,,,0.00,891,WeatherHawk,2013-06-18 22:21:00,
2013-06-18 15:22:00,106.0,29.2,29.68,SW,225,12.0,-999.0,7,0.00,,,0.00,891,WeatherHawk,2013-06-18 22:22:00,
2013-06-18 15:24:00,105.1,28.6,29.68,SSW,206,9.0,0.0,7,0.00,,,0.00,881,WeatherHawk,2013-06-18 22:24:00,
2013-06-18 15:27:00,105.1,24.8,29.68,SSW,195,11.0,0.0,6,0.00,,,0.00,875,WeatherHawk,2013-06-18 22:27:00,
2013-06-18 15:29:00,105.8,29.1,29.68,SSW,208,8.0,0.0,7,0.00,,,0.00,873,WeatherHawk,2013-06-18 22:29:00,
2013-06-18 15:30:00,105.6,28.9,29.68,SSW,213,10.0,0.0,7,0.00,,,0.00,868,WeatherHawk,2013-06-18 22:30:00,
2013-06-18 15:31:00,105.4,28.8,29.68,SSW,204,10.0,0.0,7,0.00,,,0.00,861,WeatherHawk,2013-06-18 22:31:00,
2013-06-18 15:32:00,105.4,28.8,29.68,SSW,204,10.0,0.0,7,0.00,,,0.00,861,WeatherHawk,2013-06-18 22:32:00,
2013-06-18 15:36:00,105.4,28.8,29.68,SW,216,11.0,0.0,7,0.00,,,0.00,852,WeatherHawk,2013-06-18 22:36:00,
2013-06-18 15:37:00,105.4,28.8,29.68,SW,216,11.0,-999.0,7,0.00,,,0.00,852,WeatherHawk,2013-06-18 22:37:00,
2013-06-18 15:38:00,105.3,28.7,29.68,WSW,258,8.0,0.0,7,0.00,,,0.00,843,WeatherHawk,2013-06-18 22:38:00,
2013-06-18 15:40:00,105.4,28.8,29.67,SW,227,11.0,0.0,7,0.00,,,0.00,839,WeatherHawk,2013-06-18 22:40:00,
2013-06-18 15:42:00,105.3,28.7,29.67,SSW,207,8.0,0.0,7,0.00,,,0.00,832,WeatherHawk,2013-06-18 22:42:00,
2013-06-18 15:43:00,104.7,28.3,29.67,SSW,211,4.0,0.0,7,0.00,,,0.00,823,WeatherHawk,2013-06-18 22:43:00,
2013-06-18 15:46:00,104.9,28.4,29.67,WSW,238,7.0,0.0,7,0.00,,,0.00,817,WeatherHawk,2013-06-18 22:46:00,
2013-06-18 15:48:00,104.9,28.4,29.67,WSW,246,5.0,16.0,7,0.00,,,0.00,813,WeatherHawk,2013-06-18 22:48:00,
2013-06-18 15:49:00,104.9,28.4,29.67,SW,235,8.0,15.0,7,0.00,,,0.00,805,WeatherHawk,2013-06-18 22:49:00,
2013-06-18 15:50:00,104.9,28.4,29.67,SW,234,7.0,15.0,7,0.00,,,0.00,802,WeatherHawk,2013-06-18 22:50:00,
2013-06-18 15:53:00,104.7,28.3,29.67,SSW,200,6.0,15.0,7,0.00,,,0.00,790,WeatherHawk,2013-06-18 22:53:00,
2013-06-18 15:55:00,104.5,28.2,29.66,South,173,9.0,15.0,7,0.00,,,0.00,790,WeatherHawk,2013-06-18 22:55:00,
2013-06-18 15:58:00,104.7,28.3,29.66,South,183,6.0,15.0,7,0.00,,,0.00,777,WeatherHawk,2013-06-18 22:58:00,
2013-06-18 15:59:00,104.9,28.4,29.66,West,263,6.0,14.0,7,0.00,,,0.00,778,WeatherHawk,2013-06-18 22:59:00,
2013-06-18 16:02:00,105.3,28.7,29.66,SW,214,10.0,14.0,7,0.00,,,0.00,767,WeatherHawk,2013-06-18 23:02:00,
2013-06-18 16:03:00,105.3,28.7,29.66,SW,214,10.0,14.0,7,0.00,,,0.00,767,WeatherHawk,2013-06-18 23:03:00,
2013-06-18 16:08:00,104.5,28.2,29.66,WSW,239,7.0,14.0,7,0.00,,,0.00,747,WeatherHawk,2013-06-18 23:08:00,
2013-06-18 16:09:00,104.9,28.4,29.66,WSW,240,15.0,15.0,7,0.00,,,0.00,746,WeatherHawk,2013-06-18 23:09:00,
2013-06-18 16:13:00,104.9,24.7,29.66,SW,231,11.0,15.0,6,0.00,,,0.00,737,WeatherHawk,2013-06-18 23:13:00,
2013-06-18 16:14:00,105.3,25.0,29.66,WSW,247,12.0,15.0,6,0.00,,,0.00,725,WeatherHawk,2013-06-18 23:14:00,
2013-06-18 16:18:00,105.3,25.0,29.66,WSW,246,11.0,15.0,6,0.00,,,0.00,720,WeatherHawk,2013-06-18 23:18:00,
2013-06-18 16:19:00,105.1,24.8,29.66,SW,225,10.0,16.0,6,0.00,,,0.00,713,WeatherHawk,2013-06-18 23:19:00,
2013-06-18 16:21:00,105.3,28.7,29.65,SW,222,14.0,16.0,7,0.00,,,0.00,704,WeatherHawk,2013-06-18 23:21:00,
2013-06-18 16:23:00,105.3,28.7,29.65,SW,221,12.0,16.0,7,0.00,,,0.00,700,WeatherHawk,2013-06-18 23:23:00,
2013-06-18 16:25:00,105.1,28.6,29.65,WSW,242,10.0,16.0,7,0.00,,,0.00,688,WeatherHawk,2013-06-18 23:25:00,
2013-06-18 16:26:00,105.1,28.6,29.65,WSW,237,7.0,16.0,7,0.00,,,0.00,683,WeatherHawk,2013-06-18 23:26:00,
2013-06-18 16:28:00,104.9,28.4,29.65,WSW,254,4.0,0.0,7,0.00,,,0.00,677,WeatherHawk,2013-06-18 23:28:00,
2013-06-18 16:31:00,105.1,28.6,29.65,SSW,212,7.0,14.0,7,0.00,,,0.00,662,WeatherHawk,2013-06-18 23:31:00,
2013-06-18 16:32:00,105.3,28.7,29.65,South,176,7.0,14.0,7,0.00,,,0.00,661,WeatherHawk,2013-06-18 23:32:00,
2013-06-18 16:33:00,105.3,28.7,29.65,South,176,7.0,-999.0,7,0.00,,,0.00,661,WeatherHawk,2013-06-18 23:33:00,
2013-06-18 16:37:00,105.8,29.1,29.65,SW,218,9.0,14.0,7,0.00,,,0.00,646,WeatherHawk,2013-06-18 23:37:00,
2013-06-18 16:38:00,105.8,25.3,29.65,SW,217,13.0,14.0,6,0.00,,,0.00,647,WeatherHawk,2013-06-18 23:38:00,
2013-06-18 16:41:00,105.3,25.0,29.65,SW,216,7.0,15.0,6,0.00,,,0.00,631,WeatherHawk,2013-06-18 23:41:00,
2013-06-18 16:43:00,105.4,25.1,29.65,SSW,202,8.0,15.0,6,0.00,,,0.00,625,WeatherHawk,2013-06-18 23:43:00,
2013-06-18 16:44:00,105.3,28.7,29.65,SW,216,9.0,15.0,7,0.00,,,0.00,618,WeatherHawk,2013-06-18 23:44:00,
2013-06-18 16:48:00,105.1,28.6,29.64,WSW,258,4.0,15.0,7,0.00,,,0.00,605,WeatherHawk,2013-06-18 23:48:00,
2013-06-18 16:49:00,104.9,28.4,29.64,West,260,5.0,13.0,7,0.00,,,0.00,598,WeatherHawk,2013-06-18 23:49:00,
2013-06-18 16:51:00,105.1,28.6,29.64,SW,235,11.0,13.0,7,0.00,,,0.00,590,WeatherHawk,2013-06-18 23:51:00,
2013-06-18 16:53:00,105.1,28.6,29.64,WSW,244,11.0,13.0,7,0.00,,,0.00,590,WeatherHawk,2013-06-18 23:53:00,
2013-06-18 16:54:00,105.1,28.6,29.64,West,261,11.0,13.0,7,0.00,,,0.00,576,WeatherHawk,2013-06-18 23:54:00,
2013-06-18 16:58:00,104.9,28.4,29.64,SW,232,9.0,13.0,7,0.00,,,0.00,562,WeatherHawk,2013-06-18 23:58:00,
2013-06-18 17:01:00,105.3,25.0,29.64,WSW,249,8.0,14.0,6,0.00,,,0.00,548,WeatherHawk,2013-06-19 00:01:00,
2013-06-18 17:03:00,105.3,25.0,29.64,SW,228,8.0,14.0,6,0.00,,,0.00,545,WeatherHawk,2013-06-19 00:03:00,
2013-06-18 17:04:00,105.3,28.7,29.64,WSW,247,11.0,14.0,7,0.00,,,0.00,541,WeatherHawk,2013-06-19 00:04:00,
2013-06-18 17:06:00,105.1,28.6,29.64,WSW,239,5.0,14.0,7,0.00,,,0.00,534,WeatherHawk,2013-06-19 00:06:00,
2013-06-18 17:08:00,105.1,28.6,29.64,SW,233,8.0,14.0,7,0.00,,,0.00,536,WeatherHawk,2013-06-19 00:08:00,
2013-06-18 17:09:00,105.1,28.6,29.64,West,263,6.0,13.0,7,0.00,,,0.00,528,WeatherHawk,2013-06-19 00:09:00,
2013-06-18 17:10:00,104.9,28.4,29.64,West,274,4.0,13.0,7,0.00,,,0.00,524,WeatherHawk,2013-06-19 00:10:00,
2013-06-18 17:13:00,105.3,25.0,29.63,WNW,290,7.0,13.0,6,0.00,,,0.00,513,WeatherHawk,2013-06-19 00:13:00,
2013-06-18 17:15:00,105.4,25.1,29.63,WNW,291,10.0,13.0,6,0.00,,,0.00,500,WeatherHawk,2013-06-19 00:15:00,
2013-06-18 17:18:00,105.6,25.2,29.63,WNW,283,4.0,13.0,6,0.00,,,0.00,491,WeatherHawk,2013-06-19 00:18:00,
2013-06-18 17:20:00,105.3,25.0,29.63,West,277,11.0,11.0,6,0.00,,,0.00,480,WeatherHawk,2013-06-19 00:20:00,
2013-06-18 17:23:00,104.9,24.7,29.63,WSW,254,7.0,11.0,6,0.00,,,0.00,470,WeatherHawk,2013-06-19 00:23:00,
2013-06-18 17:26:00,105.1,24.8,29.63,WSW,239,10.0,11.0,6,0.00,,,0.00,459,WeatherHawk,2013-06-19 00:26:00,
2013-06-18 17:28:00,105.1,24.8,29.63,WSW,239,9.0,11.0,6,0.00,,,0.00,455,WeatherHawk,2013-06-19 00:28:00,
2013-06-18 17:31:00,105.1,28.6,29.63,SW,220,12.0,0.0,7,0.00,,,0.00,440,WeatherHawk,2013-06-19 00:31:00,
2013-06-18 17:32:00,105.1,28.6,29.63,WSW,237,8.0,0.0,7,0.00,,,0.00,433,WeatherHawk,2013-06-19 00:32:00,
2013-06-18 17:33:00,105.1,28.6,29.63,WSW,237,8.0,-999.0,7,0.00,,,0.00,433,WeatherHawk,2013-06-19 00:33:00,
2013-06-18 17:34:00,105.1,28.6,29.63,SW,235,7.0,0.0,7,0.00,,,0.00,425,WeatherHawk,2013-06-19 00:34:00,
2013-06-18 17:35:00,104.9,28.4,29.63,WSW,243,5.0,0.0,7,0.00,,,0.00,421,WeatherHawk,2013-06-19 00:35:00,
2013-06-18 17:38:00,104.9,28.4,29.63,WSW,249,6.0,-999.0,7,0.00,,,0.00,411,WeatherHawk,2013-06-19 00:38:00,
2013-06-18 17:40:00,105.1,28.6,29.63,West,260,10.0,0.0,7,0.00,,,0.00,399,WeatherHawk,2013-06-19 00:40:00,
2013-06-18 17:41:00,104.9,28.4,29.63,SW,227,8.0,0.0,7,0.00,,,0.00,391,WeatherHawk,2013-06-19 00:41:00,
2013-06-18 17:44:00,104.9,28.4,29.63,WSW,243,8.0,0.0,7,0.00,,,0.00,384,WeatherHawk,2013-06-19 00:44:00,
2013-06-18 17:45:00,104.7,28.3,29.63,WSW,250,6.0,0.0,7,0.00,,,0.00,380,WeatherHawk,2013-06-19 00:45:00,
2013-06-18 17:46:00,104.7,28.3,29.63,WSW,247,11.0,0.0,7,0.00,,,0.00,366,WeatherHawk,2013-06-19 00:46:00,
2013-06-18 17:48:00,104.7,24.6,29.63,WSW,239,12.0,0.0,6,0.00,,,0.00,373,WeatherHawk,2013-06-19 00:48:00,
2013-06-18 17:50:00,104.7,24.6,29.63,SW,218,8.0,13.0,6,0.00,,,0.00,359,WeatherHawk,2013-06-19 00:50:00,
2013-06-18 17:52:00,104.7,28.3,29.63,West,273,11.0,13.0,7,0.00,,,0.00,353,WeatherHawk,2013-06-19 00:52:00,
2013-06-18 17:54:00,104.5,28.2,29.63,West,271,7.0,13.0,7,0.00,,,0.00,350,WeatherHawk,2013-06-19 00:54:00,
2013-06-18 17:57:00,104.5,28.2,29.63,West,261,8.0,13.0,7,0.00,,,0.00,338,WeatherHawk,2013-06-19 00:57:00,
2013-06-18 17:58:00,104.5,28.2,29.63,West,261,8.0,13.0,7,0.00,,,0.00,338,WeatherHawk,2013-06-19 00:58:00,
2013-06-18 18:03:00,104.5,24.5,29.63,WSW,252,8.0,0.0,6,0.00,,,0.00,318,WeatherHawk,2013-06-19 01:03:00,
2013-06-18 18:07:00,104.7,24.6,29.63,West,278,5.0,0.0,6,0.00,,,0.00,291,WeatherHawk,2013-06-19 01:07:00,
2013-06-18 18:08:00,104.7,24.6,29.63,West,262,5.0,0.0,6,0.00,,,0.00,293,WeatherHawk,2013-06-19 01:08:00,
2013-06-18 18:10:00,104.7,28.3,29.63,WSW,248,6.0,0.0,7,0.00,,,0.00,287,WeatherHawk,2013-06-19 01:10:00,
2013-06-18 18:12:00,104.5,24.5,29.63,WSW,240,8.0,-999.0,6,0.00,,,0.00,279,WeatherHawk,2013-06-19 01:12:00,
2013-06-18 18:13:00,104.5,24.5,29.63,West,260,6.0,0.0,6,0.00,,,0.00,280,WeatherHawk,2013-06-19 01:13:00,
2013-06-18 18:14:00,104.5,28.2,29.63,West,266,7.0,0.0,7,0.00,,,0.00,273,WeatherHawk,2013-06-19 01:14:00,
2013-06-18 18:17:00,104.2,27.9,29.63,West,259,6.0,0.0,7,0.00,,,0.00,260,WeatherHawk,2013-06-19 01:17:00,
2013-06-18 18:18:00,104.2,27.9,29.63,WSW,251,7.0,9.0,7,0.00,,,0.00,255,WeatherHawk,2013-06-19 01:18:00,
2013-06-18 18:21:00,104.2,27.9,29.63,SW,234,8.0,9.0,7,0.00,,,0.00,244,WeatherHawk,2013-06-19 01:21:00,
2013-06-18 18:22:00,104.4,28.0,29.63,SW,229,7.0,9.0,7,0.00,,,0.00,240,WeatherHawk,2013-06-19 01:22:00,
2013-06-18 18:24:00,104.4,28.0,29.63,SW,222,11.0,11.0,7,0.00,,,0.00,232,WeatherHawk,2013-06-19 01:24:00,
2013-06-18 18:25:00,104.4,28.0,29.63,SW,232,8.0,9.0,7,0.00,,,0.00,227,WeatherHawk,2013-06-19 01:25:00,
2013-06-18 18:27:00,104.4,31.3,29.63,SW,223,13.0,13.0,8,0.00,,,0.00,217,WeatherHawk,2013-06-19 01:27:00,
2013-06-18 18:29:00,104.2,34.1,29.63,SW,220,11.0,0.0,9,0.00,,,0.00,216,WeatherHawk,2013-06-19 01:29:00,
2013-06-18 18:30:00,104.0,34.0,29.63,SSW,193,10.0,0.0,9,0.00,,,0.00,212,WeatherHawk,2013-06-19 01:30:00,
2013-06-18 18:31:00,104.0,34.0,29.63,SSW,206,12.0,0.0,9,0.00,,,0.00,207,WeatherHawk,2013-06-19 01:31:00,
2013-06-18 18:33:00,104.0,31.1,29.63,SSW,199,11.0,0.0,8,0.00,,,0.00,201,WeatherHawk,2013-06-19 01:33:00,
2013-06-18 18:36:00,103.6,30.8,29.63,South,190,12.0,0.0,8,0.00,,,0.00,187,WeatherHawk,2013-06-19 01:36:00,
2013-06-18 18:37:00,103.6,30.8,29.63,South,190,12.0,-999.0,8,0.00,,,0.00,187,WeatherHawk,2013-06-19 01:37:00,
2013-06-18 18:39:00,103.5,30.7,29.63,SSW,203,12.0,0.0,8,0.00,,,0.00,179,WeatherHawk,2013-06-19 01:39:00,
2013-06-18 18:42:00,103.3,30.5,29.63,SSW,199,12.0,-999.0,8,0.00,,,0.00,171,WeatherHawk,2013-06-19 01:42:00,
2013-06-18 18:43:00,103.3,30.5,29.63,South,191,12.0,15.0,8,0.00,,,0.00,166,WeatherHawk,2013-06-19 01:43:00,
2013-06-18 18:47:00,102.9,30.3,29.63,SSW,199,12.0,15.0,8,0.00,,,0.00,154,WeatherHawk,2013-06-19 01:47:00,
2013-06-18 18:50:00,102.9,30.3,29.63,South,191,11.0,0.0,8,0.00,,,0.00,137,WeatherHawk,2013-06-19 01:50:00,
2013-06-18 18:52:00,102.7,30.1,29.63,SSW,193,9.0,0.0,8,0.00,,,0.00,130,WeatherHawk,2013-06-19 01:52:00,
2013-06-18 18:56:00,102.4,32.8,29.63,SSW,200,9.0,0.0,9,0.00,,,0.00,123,WeatherHawk,2013-06-19 01:56:00,
2013-06-18 18:57:00,102.2,32.6,29.63,SSW,195,9.0,0.0,9,0.00,,,0.00,118,WeatherHawk,2013-06-19 01:57:00,
2013-06-18 18:59:00,102.0,29.6,29.63,SSW,197,10.0,0.0,8,0.00,,,0.00,110,WeatherHawk,2013-06-19 01:59:00,
2013-06-18 19:02:00,102.0,29.6,29.63,SSW,199,10.0,0.0,8,0.00,,,0.00,104,WeatherHawk,2013-06-19 02:02:00,
2013-06-18 19:06:00,101.7,29.3,29.63,SSW,193,11.0,0.0,8,0.00,,,0.00,89,WeatherHawk,2013-06-19 02:06:00,
2013-06-18 19:07:00,101.7,29.3,29.63,SSW,196,9.0,0.0,8,0.00,,,0.00,87,WeatherHawk,2013-06-19 02:07:00,
2013-06-18 19:10:00,101.5,29.2,29.63,SSW,206,9.0,13.0,8,0.00,,,0.00,79,WeatherHawk,2013-06-19 02:10:00,
2013-06-18 19:12:00,101.3,32.0,29.63,SSW,201,10.0,13.0,9,0.00,,,0.00,75,WeatherHawk,2013-06-19 02:12:00,
2013-06-18 19:13:00,100.9,31.7,29.63,SSW,203,9.0,13.0,9,0.00,,,0.00,71,WeatherHawk,2013-06-19 02:13:00,
2013-06-18 19:15:00,100.8,31.6,29.63,SSW,203,11.0,13.0,9,0.00,,,0.00,68,WeatherHawk,2013-06-19 02:15:00,
2013-06-18 19:17:00,100.6,31.4,29.63,SSW,204,9.0,13.0,9,0.00,,,0.00,63,WeatherHawk,2013-06-19 02:17:00,
2013-06-18 19:22:00,100.4,31.3,29.63,SSW,195,9.0,12.0,9,0.00,,,0.00,51,WeatherHawk,2013-06-19 02:22:00,
2013-06-18 19:23:00,100.4,31.3,29.63,SSW,198,9.0,12.0,9,0.00,,,0.00,48,WeatherHawk,2013-06-19 02:23:00,
2013-06-18 19:27:00,100.0,31.0,29.63,SSW,193,9.0,-999.0,9,0.00,,,0.00,38,WeatherHawk,2013-06-19 02:27:00,
2013-06-18 19:29:00,99.7,30.8,29.63,SSW,198,9.0,0.0,9,0.00,,,0.00,31,WeatherHawk,2013-06-19 02:29:00,
2013-06-18 19:30:00,99.7,30.8,29.63,SSW,199,8.0,0.0,9,0.00,,,0.00,29,WeatherHawk,2013-06-19 02:30:00,
2013-06-18 19:32:00,99.5,30.6,29.63,SSW,194,7.0,11.0,9,0.00,,,0.00,25,WeatherHawk,2013-06-19 02:32:00,
2013-06-18 19:33:00,99.3,33.1,29.63,SSW,192,8.0,11.0,10,0.00,,,0.00,20,WeatherHawk,2013-06-19 02:33:00,
2013-06-18 19:36:00,99.0,32.9,29.63,SSW,197,8.0,11.0,10,0.00,,,0.00,18,WeatherHawk,2013-06-19 02:36:00,
2013-06-18 19:37:00,99.0,32.9,29.63,SSW,197,8.0,11.0,10,0.00,,,0.00,18,WeatherHawk,2013-06-19 02:37:00,
2013-06-18 19:41:00,98.4,32.4,29.63,SSW,198,8.0,0.0,10,0.00,,,0.00,10,WeatherHawk,2013-06-19 02:41:00,
2013-06-18 19:42:00,98.4,32.4,29.63,SSW,200,8.0,-999.0,10,0.00,,,0.00,9,WeatherHawk,2013-06-19 02:42:00,
2013-06-18 19:43:00,98.2,34.7,29.63,South,188,8.0,0.0,11,0.00,,,0.00,8,WeatherHawk,2013-06-19 02:43:00,
2013-06-18 19:47:00,98.1,34.6,29.63,SSW,193,8.0,0.0,11,0.00,,,0.00,5,WeatherHawk,2013-06-19 02:47:00,
2013-06-18 19:49:00,97.9,34.4,29.63,SSW,192,10.0,0.0,11,0.00,,,0.00,4,WeatherHawk,2013-06-19 02:49:00,
2013-06-18 19:51:00,97.7,34.3,29.63,SSW,195,9.0,0.0,11,0.00,,,0.00,3,WeatherHawk,2013-06-19 02:51:00,
2013-06-18 19:54:00,97.3,34.0,29.63,South,191,9.0,0.0,11,0.00,,,0.00,2,WeatherHawk,2013-06-19 02:54:00,
2013-06-18 19:57:00,97.2,33.9,29.63,South,189,9.0,0.0,11,0.00,,,0.00,2,WeatherHawk,2013-06-19 02:57:00,
2013-06-18 20:01:00,96.8,33.6,29.63,SSW,193,10.0,0.0,11,0.00,,,0.00,0,WeatherHawk,2013-06-19 03:01:00,
2013-06-18 20:02:00,96.8,33.6,29.63,SSW,202,9.0,0.0,11,0.00,,,0.00,0,WeatherHawk,2013-06-19 03:02:00,
2013-06-18 20:06:00,96.4,35.5,29.63,South,191,9.0,0.0,12,0.00,,,0.00,0,WeatherHawk,2013-06-19 03:06:00,
2013-06-18 20:07:00,96.3,35.4,29.63,SSW,195,10.0,0.0,12,0.00,,,0.00,0,WeatherHawk,2013-06-19 03:07:00,
2013-06-18 20:10:00,95.9,35.1,29.63,SSW,192,9.0,11.0,12,0.00,,,0.00,0,WeatherHawk,2013-06-19 03:10:00,
2013-06-18 20:12:00,95.7,34.9,29.63,South,191,8.0,11.0,12,0.00,,,0.00,0,WeatherHawk,2013-06-19 03:12:00,
2013-06-18 20:15:00,95.5,34.8,29.63,SSW,197,7.0,11.0,12,0.00,,,0.00,0,WeatherHawk,2013-06-19 03:15:00,
2013-06-18 20:16:00,95.4,36.7,29.63,South,191,8.0,11.0,13,0.00,,,0.00,0,WeatherHawk,2013-06-19 03:16:00,
2013-06-18 20:17:00,95.4,36.7,29.63,SSW,193,7.0,0.0,13,0.00,,,0.00,1,WeatherHawk,2013-06-19 03:17:00,
2013-06-18 20:19:00,95.2,36.6,29.63,SSW,200,6.0,0.0,13,0.00,,,0.00,1,WeatherHawk,2013-06-19 03:19:00,
2013-06-18 20:20:00,95.0,36.4,29.63,SSW,194,8.0,0.0,13,0.00,,,0.00,0,WeatherHawk,2013-06-19 03:20:00,
2013-06-18 20:22:00,94.8,36.3,29.63,SSW,195,8.0,-999.0,13,0.00,,,0.00,0,WeatherHawk,2013-06-19 03:22:00,
2013-06-18 20:25:00,94.8,38.2,29.63,SSW,196,10.0,0.0,14,0.00,,,0.00,0,WeatherHawk,2013-06-19 03:25:00,
2013-06-18 20:26:00,94.6,38.0,29.63,South,188,9.0,0.0,14,0.00,,,0.00,0,WeatherHawk,2013-06-19 03:26:00,
2013-06-18 20:27:00,94.6,38.0,29.63,South,188,9.0,0.0,14,0.00,,,0.00,0,WeatherHawk,2013-06-19 03:27:00,
2013-06-18 20:28:00,94.6,38.0,29.63,South,190,9.0,0.0,14,0.00,,,0.00,0,WeatherHawk,2013-06-19 03:28:00,
2013-06-18 20:31:00,94.3,39.5,29.63,SSW,192,11.0,12.0,15,0.00,,,0.00,0,WeatherHawk,2013-06-19 03:31:00,
2013-06-18 20:35:00,94.1,39.4,29.63,South,191,10.0,12.0,15,0.00,,,0.00,0,WeatherHawk,2013-06-19 03:35:00,
2013-06-18 20:37:00,93.9,39.2,29.63,South,187,8.0,12.0,15,0.00,,,0.00,0,WeatherHawk,2013-06-19 03:37:00,
2013-06-18 20:39:00,93.9,39.2,29.63,SSW,193,8.0,0.0,15,0.00,,,0.00,0,WeatherHawk,2013-06-19 03:39:00,
2013-06-18 20:40:00,93.7,39.1,29.63,South,191,8.0,11.0,15,0.00,,,0.00,0,WeatherHawk,2013-06-19 03:40:00,
2013-06-18 20:42:00,93.7,39.1,29.64,South,191,7.0,11.0,15,0.00,,,0.00,0,WeatherHawk,2013-06-19 03:42:00,
2013-06-18 20:46:00,93.4,38.8,29.64,SSW,192,7.0,11.0,15,0.00,,,0.00,0,WeatherHawk,2013-06-19 03:46:00,
2013-06-18 20:47:00,93.4,38.8,29.64,SSW,192,7.0,11.0,15,0.00,,,0.00,0,WeatherHawk,2013-06-19 03:47:00,
2013-06-18 20:51:00,93.2,38.6,29.64,SSW,207,9.0,0.0,15,0.00,,,0.00,0,WeatherHawk,2013-06-19 03:51:00,
2013-06-18 20:52:00,93.2,38.6,29.64,SSW,209,7.0,0.0,15,0.00,,,0.00,0,WeatherHawk,2013-06-19 03:52:00,
2013-06-18 20:53:00,93.0,38.5,29.64,SSW,211,7.0,0.0,15,0.00,,,0.00,0,WeatherHawk,2013-06-19 03:53:00,
2013-06-18 20:57:00,92.7,38.2,29.64,SSW,211,9.0,0.0,15,0.00,,,0.00,0,WeatherHawk,2013-06-19 03:57:00,
2013-06-18 20:58:00,92.3,39.6,29.64,SSW,204,7.0,9.0,16,0.00,,,0.00,0,WeatherHawk,2013-06-19 03:58:00,
2013-06-18 21:00:00,92.1,39.4,29.64,SSW,200,6.0,9.0,16,0.00,,,0.00,0,WeatherHawk,2013-06-19 04:00:00,
2013-06-18 21:01:00,91.9,39.3,29.64,SSW,194,6.0,9.0,16,0.00,,,0.00,0,WeatherHawk,2013-06-19 04:01:00,
2013-06-18 21:02:00,91.9,39.3,29.64,SSW,194,6.0,9.0,16,0.00,,,0.00,0,WeatherHawk,2013-06-19 04:02:00,
2013-06-18 21:03:00,91.8,39.2,29.64,SSW,199,5.0,9.0,16,0.00,,,0.00,0,WeatherHawk,2013-06-19 04:03:00,
2013-06-18 21:07:00,91.4,40.4,29.64,SSW,193,6.0,9.0,17,0.00,,,0.00,0,WeatherHawk,2013-06-19 04:07:00,
2013-06-18 21:08:00,91.0,40.1,29.64,SSW,203,6.0,0.0,17,0.00,,,0.00,0,WeatherHawk,2013-06-19 04:08:00,
2013-06-18 21:09:00,91.0,40.1,29.64,SSW,204,7.0,0.0,17,0.00,,,0.00,0,WeatherHawk,2013-06-19 04:09:00,
2013-06-18 21:12:00,90.7,39.8,29.65,SSW,207,6.0,-999.0,17,0.00,,,0.00,0,WeatherHawk,2013-06-19 04:12:00,
2013-06-18 21:13:00,90.7,39.8,29.65,SW,217,5.0,0.0,17,0.00,,,0.00,0,WeatherHawk,2013-06-19 04:13:00,
2013-06-18 21:15:00,90.5,39.7,29.65,WSW,238,6.0,0.0,17,0.00,,,0.00,0,WeatherHawk,2013-06-19 04:15:00,
2013-06-18 21:17:00,90.3,39.6,29.65,West,261,7.0,0.0,17,0.00,,,0.00,0,WeatherHawk,2013-06-19 04:17:00,
2013-06-18 21:20:00,88.3,43.4,29.65,WNW,283,8.0,0.0,21,0.00,,,0.00,0,WeatherHawk,2013-06-19 04:20:00,
2013-06-18 21:21:00,87.1,43.6,29.66,WNW,287,5.0,0.0,22,0.00,,,0.00,0,WeatherHawk,2013-06-19 04:21:00,
2013-06-18 21:22:00,86.5,44.3,29.66,WNW,282,8.0,0.0,23,0.00,,,0.00,0,WeatherHawk,2013-06-19 04:22:00,
2013-06-18 21:25:00,84.6,45.9,29.66,WSW,258,5.0,0.0,26,0.00,,,0.00,0,WeatherHawk,2013-06-19 04:25:00,
2013-06-18 21:27:00,84.2,46.6,29.66,West,276,6.0,0.0,27,0.00,,,0.00,0,WeatherHawk,2013-06-19 04:27:00,
2013-06-18 21:29:00,83.5,46.0,29.66,WNW,284,8.0,0.0,27,0.00,,,0.00,0,WeatherHawk,2013-06-19 04:29:00,
2013-06-18 21:32:00,83.1,46.6,29.66,WNW,292,8.0,0.0,28,0.00,,,0.00,0,WeatherHawk,2013-06-19 04:32:00,
2013-06-18 21:37:00,83.3,45.8,29.66,West,268,5.0,0.0,27,0.00,,,0.00,0,WeatherHawk,2013-06-19 04:37:00,
2013-06-18 21:42:00,84.2,45.6,29.67,WNW,285,5.0,9.0,26,0.00,,,0.00,0,WeatherHawk,2013-06-19 04:42:00,
2013-06-18 21:44:00,84.4,45.7,29.67,West,281,6.0,9.0,26,0.00,,,0.00,0,WeatherHawk,2013-06-19 04:44:00,
2013-06-18 21:45:00,84.6,45.9,29.67,West,262,5.0,9.0,26,0.00,,,0.00,0,WeatherHawk,2013-06-19 04:45:00,
2013-06-18 21:48:00,84.7,45.0,29.67,WSW,254,2.0,0.0,25,0.00,,,0.00,0,WeatherHawk,2013-06-19 04:48:00,
2013-06-18 21:50:00,84.7,45.0,29.67,WSW,258,4.0,0.0,25,0.00,,,0.00,0,WeatherHawk,2013-06-19 04:50:00,
2013-06-18 21:51:00,84.7,45.0,29.67,West,271,5.0,0.0,25,0.00,,,0.00,0,WeatherHawk,2013-06-19 04:51:00,
2013-06-18 21:52:00,84.7,45.0,29.67,West,271,5.0,0.0,25,0.00,,,0.00,0,WeatherHawk,2013-06-19 04:52:00,
2013-06-18 21:53:00,84.9,45.1,29.67,West,270,5.0,0.0,25,0.00,,,0.00,0,WeatherHawk,2013-06-19 04:53:00,
2013-06-18 21:57:00,85.1,45.3,29.67,West,272,5.0,-999.0,25,0.00,,,0.00,0,WeatherHawk,2013-06-19 04:57:00,
2013-06-18 21:58:00,85.1,45.3,29.67,West,275,4.0,0.0,25,0.00,,,0.00,0,WeatherHawk,2013-06-19 04:58:00,
2013-06-18 21:59:00,85.1,45.3,29.67,West,276,4.0,0.0,25,0.00,,,0.00,0,WeatherHawk,2013-06-19 04:59:00,
2013-06-18 22:02:00,85.1,45.3,29.67,West,264,4.0,0.0,25,0.00,,,0.00,0,WeatherHawk,2013-06-19 05:02:00,
2013-06-18 22:03:00,85.1,45.3,29.67,West,266,4.0,0.0,25,0.00,,,0.00,0,WeatherHawk,2013-06-19 05:03:00,
2013-06-18 22:04:00,85.1,45.3,29.67,West,264,4.0,0.0,25,0.00,,,0.00,0,WeatherHawk,2013-06-19 05:04:00,
2013-06-18 22:07:00,84.9,45.1,29.67,WSW,256,4.0,-999.0,25,0.00,,,0.00,0,WeatherHawk,2013-06-19 05:07:00,
2013-06-18 22:09:00,84.9,45.1,29.67,West,263,4.0,0.0,25,0.00,,,0.00,0,WeatherHawk,2013-06-19 05:09:00,
2013-06-18 22:10:00,84.9,45.1,29.67,West,259,3.0,0.0,25,0.00,,,0.00,0,WeatherHawk,2013-06-19 05:10:00,
2013-06-18 22:12:00,84.9,44.1,29.67,West,275,4.0,0.0,24,0.00,,,0.00,0,WeatherHawk,2013-06-19 05:12:00,
2013-06-18 22:13:00,84.9,44.1,29.67,WNW,286,4.0,0.0,24,0.00,,,0.00,0,WeatherHawk,2013-06-19 05:13:00,
2013-06-18 22:16:00,85.1,43.1,29.67,West,269,4.0,0.0,23,0.00,,,0.00,0,WeatherHawk,2013-06-19 05:16:00,
2013-06-18 22:17:00,85.1,43.1,29.67,West,263,4.0,0.0,23,0.00,,,0.00,0,WeatherHawk,2013-06-19 05:17:00,
2013-06-18 22:21:00,85.1,43.1,29.67,WSW,245,2.0,0.0,23,0.00,,,0.00,0,WeatherHawk,2013-06-19 05:21:00,
2013-06-18 22:22:00,85.1,43.1,29.67,WSW,245,2.0,0.0,23,0.00,,,0.00,0,WeatherHawk,2013-06-19 05:22:00,
2013-06-18 22:25:00,84.9,43.0,29.67,SW,221,3.0,0.0,23,0.00,,,0.00,0,WeatherHawk,2013-06-19 05:25:00,
2013-06-18 22:27:00,84.9,43.0,29.67,SW,218,3.0,0.0,23,0.00,,,0.00,0,WeatherHawk,2013-06-19 05:27:00,
2013-06-18 22:32:00,85.5,42.2,29.67,WSW,240,3.0,0.0,22,0.00,,,0.00,0,WeatherHawk,2013-06-19 05:32:00,
2013-06-18 22:33:00,85.6,41.2,29.67,WSW,240,4.0,0.0,21,0.00,,,0.00,0,WeatherHawk,2013-06-19 05:33:00,
2013-06-18 22:34:00,85.6,41.2,29.67,SW,236,3.0,0.0,21,0.00,,,0.00,0,WeatherHawk,2013-06-19 05:34:00,
2013-06-18 22:36:00,85.6,41.2,29.67,WSW,255,3.0,0.0,21,0.00,,,0.00,0,WeatherHawk,2013-06-19 05:36:00,
2013-06-18 22:38:00,85.6,41.2,29.67,West,264,3.0,0.0,21,0.00,,,0.00,0,WeatherHawk,2013-06-19 05:38:00,
2013-06-18 22:40:00,85.6,41.2,29.67,WSW,255,3.0,0.0,21,0.00,,,0.00,0,WeatherHawk,2013-06-19 05:40:00,
2013-06-18 22:42:00,85.6,41.2,29.67,West,262,3.0,0.0,21,0.00,,,0.00,0,WeatherHawk,2013-06-19 05:42:00,
2013-06-18 22:45:00,85.8,40.1,29.67,WNW,291,5.0,0.0,20,0.00,,,0.00,0,WeatherHawk,2013-06-19 05:45:00,
2013-06-18 22:46:00,86.0,40.2,29.67,WNW,293,7.0,0.0,20,0.00,,,0.00,0,WeatherHawk,2013-06-19 05:46:00,
2013-06-18 22:47:00,86.0,40.2,29.67,WNW,293,7.0,-999.0,20,0.00,,,0.00,0,WeatherHawk,2013-06-19 05:47:00,
2013-06-18 22:48:00,86.0,41.5,29.67,WNW,294,6.0,0.0,21,0.00,,,0.00,0,WeatherHawk,2013-06-19 05:48:00,
2013-06-18 22:52:00,85.6,41.2,29.67,WNW,296,4.0,0.0,21,0.00,,,0.00,0,WeatherHawk,2013-06-19 05:52:00,
2013-06-18 22:56:00,84.7,41.7,29.67,WNW,284,3.0,0.0,22,0.00,,,0.00,0,WeatherHawk,2013-06-19 05:56:00,
2013-06-18 22:57:00,84.7,41.7,29.67,WNW,284,3.0,0.0,22,0.00,,,0.00,0,WeatherHawk,2013-06-19 05:57:00,
2013-06-18 23:00:00,84.0,42.2,29.67,West,259,2.0,6.0,23,0.00,,,0.00,0,WeatherHawk,2013-06-19 06:00:00,
2013-06-18 23:02:00,84.0,42.2,29.67,WSW,254,3.0,6.0,23,0.00,,,0.00,0,WeatherHawk,2013-06-19 06:02:00,
2013-06-18 23:03:00,83.7,41.9,29.67,WSW,242,2.0,6.0,23,0.00,,,0.00,0,WeatherHawk,2013-06-19 06:03:00,
2013-06-18 23:05:00,83.7,41.9,29.67,SW,229,1.0,6.0,23,0.00,,,0.00,0,WeatherHawk,2013-06-19 06:05:00,
2013-06-18 23:06:00,83.5,41.8,29.67,West,261,2.0,6.0,23,0.00,,,0.00,0,WeatherHawk,2013-06-19 06:06:00,
2013-06-18 23:07:00,83.5,41.8,29.67,West,261,2.0,6.0,23,0.00,,,0.00,0,WeatherHawk,2013-06-19 06:07:00,
2013-06-18 23:08:00,83.3,41.6,29.67,WNW,282,1.0,0.0,23,0.00,,,0.00,0,WeatherHawk,2013-06-19 06:08:00,
2013-06-18 23:10:00,83.1,41.5,29.67,WSW,257,2.0,0.0,23,0.00,,,0.00,0,WeatherHawk,2013-06-19 06:10:00,
2013-06-18 23:12:00,83.1,41.5,29.67,West,262,2.0,0.0,23,0.00,,,0.00,0,WeatherHawk,2013-06-19 06:12:00,
2013-06-18 23:14:00,83.1,41.5,29.66,WSW,250,2.0,0.0,23,0.00,,,0.00,0,WeatherHawk,2013-06-19 06:14:00,
2013-06-18 23:17:00,83.1,40.3,29.66,WSW,249,2.0,0.0,22,0.00,,,0.00,0,WeatherHawk,2013-06-19 06:17:00,
2013-06-18 23:20:00,83.5,39.4,29.66,WSW,252,2.0,0.0,21,0.00,,,0.00,0,WeatherHawk,2013-06-19 06:20:00,
2013-06-18 23:22:00,83.5,38.2,29.66,West,264,3.0,0.0,20,0.00,,,0.00,0,WeatherHawk,2013-06-19 06:22:00,
2013-06-18 23:23:00,83.7,37.0,29.66,West,273,3.0,0.0,19,0.00,,,0.00,0,WeatherHawk,2013-06-19 06:23:00,
2013-06-18 23:25:00,84.2,36.1,29.66,WNW,284,4.0,0.0,18,0.00,,,0.00,0,WeatherHawk,2013-06-19 06:25:00,
2013-06-18 23:27:00,84.6,36.4,29.66,West,273,3.0,0.0,18,0.00,,,0.00,0,WeatherHawk,2013-06-19 06:27:00,
2013-06-18 23:28:00,84.7,36.5,29.66,West,265,4.0,0.0,18,0.00,,,0.00,0,WeatherHawk,2013-06-19 06:28:00,
2013-06-18 23:32:00,84.7,36.5,29.66,West,276,3.0,0.0,18,0.00,,,0.00,0,WeatherHawk,2013-06-19 06:32:00,
2013-06-18 23:34:00,84.7,36.5,29.66,West,269,2.0,0.0,18,0.00,,,0.00,0,WeatherHawk,2013-06-19 06:34:00,
2013-06-18 23:37:00,84.7,36.5,29.66,West,274,2.0,0.0,18,0.00,,,0.00,0,WeatherHawk,2013-06-19 06:37:00,
2013-06-18 23:38:00,84.7,36.5,29.66,WSW,258,2.0,0.0,18,0.00,,,0.00,0,WeatherHawk,2013-06-19 06:38:00,
2013-06-18 23:42:00,84.7,35.1,29.66,WNW,288,3.0,4.0,17,0.00,,,0.00,0,WeatherHawk,2013-06-19 06:42:00,
2013-06-18 23:43:00,84.7,35.1,29.66,West,275,4.0,4.0,17,0.00,,,0.00,0,WeatherHawk,2013-06-19 06:43:00,
2013-06-18 23:46:00,84.9,35.2,29.66,WSW,256,2.0,4.0,17,0.00,,,0.00,0,WeatherHawk,2013-06-19 06:46:00,
2013-06-18 23:47:00,84.9,35.2,29.66,WSW,256,2.0,4.0,17,0.00,,,0.00,0,WeatherHawk,2013-06-19 06:47:00,
2013-06-18 23:48:00,84.9,35.2,29.66,WSW,248,3.0,-999.0,17,0.00,,,0.00,0,WeatherHawk,2013-06-19 06:48:00,
2013-06-18 23:50:00,84.9,35.2,29.66,WSW,247,2.0,6.0,17,0.00,,,0.00,1,WeatherHawk,2013-06-19 06:50:00,
2013-06-18 23:53:00,84.9,35.2,29.66,West,269,3.0,6.0,17,0.00,,,0.00,0,WeatherHawk,2013-06-19 06:53:00,
2013-06-18 23:54:00,84.9,35.2,29.66,West,270,2.0,6.0,17,0.00,,,0.00,0,WeatherHawk,2013-06-19 06:54:00,
2013-06-18 23:58:00,84.9,35.2,29.66,West,276,3.0,6.0,17,0.00,,,0.00,0,WeatherHawk,2013-06-19 06:58:00,
2013-06-18 23:59:00,84.9,35.2,29.66,West,262,2.0,4.0,17,0.00,,,0.00,0,WeatherHawk,2013-06-19 06:59:00,